Wetterdaten: Donnerstag, 03.06.2010
Datum Zeit Temp. Innen Temp. Aussen UV X Diff Temp. Feuchte Inne Feuchte Auss Sonnenschein Luftdruck Regen ab 0,1 Wind Sonnenschein Windben
03.06.2010 00:00 20,5 C 15,3 C 0,0 UV-I 0,0 C 56 % 76 % 0 % 1021,9 hPa 0,0 l/m 1,6 km/h (1 Bft) 0 min 7,4 km/h (2 Bft)
03.06.2010 00:02 20,5 C 15,3 C 0,0 UV-I 0,0 C 56 % 76 % 0 % 1021,9 hPa 0,0 l/m 2,4 km/h (1 Bft) 0 min 3,2 km/h (1 Bft)
03.06.2010 00:04 20,4 C 15,3 C 0,0 UV-I 0,0 C 56 % 76 % 0 % 1021,9 hPa 0,0 l/m 2,4 km/h (1 Bft) 0 min 3,2 km/h (1 Bft)
03.06.2010 00:08 20,4 C 15,5 C 0,0 UV-I 0,0 C 56 % 75 % 0 % 1021,9 hPa 0,0 l/m 5,6 km/h (1 Bft) 0 min 7,7 km/h (2 Bft)
03.06.2010 00:12 20,4 C 15,5 C 0,0 UV-I 0,0 C 56 % 75 % 0 % 1021,9 hPa 0,0 l/m 5,6 km/h (1 Bft) 0 min 6,4 km/h (2 Bft)
03.06.2010 00:14 20,4 C 15,5 C 0,0 UV-I 0,0 C 56 % 75 % 0 % 1021,9 hPa 0,0 l/m 5,2 km/h (1 Bft) 0 min 4,2 km/h (1 Bft)
03.06.2010 00:20 20,4 C 15,3 C 0,0 UV-I 0,0 C 56 % 75 % 0 % 1021,9 hPa 0,0 l/m 2,8 km/h (1 Bft) 0 min 3,2 km/h (1 Bft)
03.06.2010 00:24 20,4 C 15,2 C 0,0 UV-I 0,0 C 55 % 75 % 0 % 1021,9 hPa 0,0 l/m 3,2 km/h (1 Bft) 0 min 6,1 km/h (2 Bft)
03.06.2010 00:26 20,4 C 15,3 C 0,0 UV-I 0,0 C 56 % 75 % 0 % 1021,9 hPa 0,0 l/m 2,8 km/h (1 Bft) 0 min 3,2 km/h (1 Bft)
03.06.2010 00:32 20,2 C 15,1 C 0,0 UV-I 0,0 C 55 % 75 % 0 % 1022,0 hPa 0,0 l/m 5,6 km/h (1 Bft) 0 min 10,0 km/h (2 Bft)
03.06.2010 00:36 20,2 C 15,1 C 0,0 UV-I 0,0 C 55 % 75 % 0 % 1022,0 hPa 0,0 l/m 7,2 km/h (2 Bft) 0 min 10,3 km/h (2 Bft)
03.06.2010 00:40 20,3 C 15,1 C 0,0 UV-I 0,0 C 55 % 74 % 0 % 1022,0 hPa 0,0 l/m 8,8 km/h (2 Bft) 0 min 12,6 km/h (3 Bft)
03.06.2010 00:48 20,2 C 15,1 C 0,0 UV-I 0,0 C 55 % 74 % 0 % 1022,0 hPa 0,0 l/m 6,0 km/h (2 Bft) 0 min 4,5 km/h (1 Bft)
03.06.2010 00:50 20,2 C 15,0 C 0,0 UV-I 0,0 C 55 % 74 % 0 % 1022,0 hPa 0,0 l/m 5,2 km/h (1 Bft) 0 min 3,5 km/h (1 Bft)
03.06.2010 00:52 20,2 C 14,9 C 0,0 UV-I 0,0 C 55 % 74 % 0 % 1021,9 hPa 0,0 l/m 4,8 km/h (1 Bft) 0 min 4,2 km/h (1 Bft)
03.06.2010 00:54 20,2 C 14,8 C 0,0 UV-I 0,0 C 55 % 75 % 0 % 1021,9 hPa 0,0 l/m 4,0 km/h (1 Bft) 0 min 0,0 km/h (0 Bft)
03.06.2010 00:56 20,2 C 14,8 C 0,0 UV-I 0,0 C 55 % 75 % 0 % 1021,9 hPa 0,0 l/m 3,6 km/h (1 Bft) 0 min 7,1 km/h (2 Bft)
03.06.2010 00:58 20,2 C 14,8 C 0,0 UV-I 0,0 C 55 % 75 % 0 % 1021,9 hPa 0,0 l/m 4,0 km/h (1 Bft) 0 min 4,5 km/h (1 Bft)
03.06.2010 01:00 20,2 C 14,7 C 0,0 UV-I 0,0 C 55 % 75 % 0 % 1021,9 hPa 0,0 l/m 3,6 km/h (1 Bft) 0 min 7,7 km/h (2 Bft)
03.06.2010 01:02 20,2 C 14,6 C 0,0 UV-I 0,0 C 55 % 75 % 0 % 1021,9 hPa 0,0 l/m 3,6 km/h (1 Bft) 0 min 6,4 km/h (2 Bft)
03.06.2010 01:10 20,1 C 14,5 C 0,0 UV-I 0,0 C 55 % 75 % 0 % 1021,9 hPa 0,0 l/m 4,8 km/h (1 Bft) 0 min 5,8 km/h (2 Bft)
03.06.2010 01:14 20,1 C 14,4 C 0,0 UV-I 0,0 C 55 % 75 % 0 % 1022,1 hPa 0,0 l/m 5,2 km/h (1 Bft) 0 min 10,6 km/h (2 Bft)
03.06.2010 01:16 20,1 C 14,4 C 0,0 UV-I 0,0 C 54 % 75 % 0 % 1022,1 hPa 0,0 l/m 5,2 km/h (1 Bft) 0 min 7,1 km/h (2 Bft)
03.06.2010 01:18 20,0 C 14,5 C 0,0 UV-I 0,0 C 55 % 75 % 0 % 1022,1 hPa 0,0 l/m 5,2 km/h (1 Bft) 0 min 5,1 km/h (1 Bft)
03.06.2010 01:20 20,1 C 14,4 C 0,0 UV-I 0,0 C 55 % 75 % 0 % 1022,1 hPa 0,0 l/m 5,2 km/h (1 Bft) 0 min 6,1 km/h (2 Bft)
03.06.2010 01:28 20,0 C 14,2 C 0,0 UV-I 0,0 C 54 % 74 % 0 % 1022,1 hPa 0,0 l/m 2,4 km/h (1 Bft) 0 min 0,0 km/h (0 Bft)
03.06.2010 01:30 20,0 C 14,2 C 0,0 UV-I 0,0 C 54 % 74 % 0 % 1022,1 hPa 0,0 l/m 1,2 km/h (1 Bft) 0 min 0,0 km/h (0 Bft)
03.06.2010 01:38 20,0 C 14,1 C 0,0 UV-I 0,0 C 54 % 75 % 0 % 1022,0 hPa 0,0 l/m 1,2 km/h (1 Bft) 0 min 3,5 km/h (1 Bft)
03.06.2010 01:43 19,9 C 13,9 C 0,0 UV-I 0,0 C 54 % 75 % 0 % 1022,0 hPa 0,0 l/m 0,8 km/h (0 Bft) 0 min 0,0 km/h (0 Bft)
03.06.2010 01:46 19,9 C 13,8 C 0,0 UV-I 0,0 C 54 % 75 % 0 % 1022,0 hPa 0,0 l/m 0,8 km/h (0 Bft) 0 min 0,0 km/h (0 Bft)
03.06.2010 01:48 19,9 C 13,9 C 0,0 UV-I 0,0 C 54 % 75 % 0 % 1022,0 hPa 0,0 l/m 0,4 km/h (0 Bft) 0 min 0,0 km/h (0 Bft)
03.06.2010 01:50 19,9 C 13,7 C 0,0 UV-I 0,0 C 54 % 76 % 0 % 1022,0 hPa 0,0 l/m 0,4 km/h (0 Bft) 0 min 0,0 km/h (0 Bft)
03.06.2010 01:52 19,8 C 13,7 C 0,0 UV-I 0,0 C 54 % 76 % 0 % 1022,0 hPa 0,0 l/m 0,4 km/h (0 Bft) 0 min 0,0 km/h (0 Bft)
03.06.2010 01:54 19,8 C 13,6 C 0,0 UV-I 0,0 C 54 % 76 % 0 % 1022,0 hPa 0,0 l/m 0,8 km/h (0 Bft) 0 min 5,8 km/h (2 Bft)
03.06.2010 01:56 19,8 C 13,7 C 0,0 UV-I 0,0 C 54 % 76 % 0 % 1022,0 hPa 0,0 l/m 1,2 km/h (1 Bft) 0 min 3,5 km/h (1 Bft)
03.06.2010 01:58 19,8 C 13,6 C 0,0 UV-I 0,0 C 54 % 76 % 0 % 1022,0 hPa 0,0 l/m 2,0 km/h (1 Bft) 0 min 7,4 km/h (2 Bft)
03.06.2010 02:00 19,8 C 13,5 C 0,0 UV-I 0,0 C 54 % 76 % 0 % 1022,0 hPa 0,0 l/m 2,0 km/h (1 Bft) 0 min 0,0 km/h (0 Bft)
03.06.2010 02:12 19,7 C 13,3 C 0,0 UV-I 0,0 C 54 % 76 % 0 % 1021,9 hPa 0,0 l/m 0,8 km/h (0 Bft) 0 min 5,8 km/h (2 Bft)
03.06.2010 02:16 19,7 C 13,3 C 0,0 UV-I 0,0 C 54 % 76 % 0 % 1021,9 hPa 0,0 l/m 1,2 km/h (1 Bft) 0 min 6,4 km/h (2 Bft)
03.06.2010 02:20 19,6 C 13,3 C 0,0 UV-I 0,0 C 54 % 76 % 0 % 1021,9 hPa 0,0 l/m 1,2 km/h (1 Bft) 0 min 3,5 km/h (1 Bft)
03.06.2010 02:22 19,6 C 13,2 C 0,0 UV-I 0,0 C 54 % 77 % 0 % 1021,9 hPa 0,0 l/m 1,6 km/h (1 Bft) 0 min 0,0 km/h (0 Bft)
03.06.2010 02:24 19,6 C 13,1 C 0,0 UV-I 0,0 C 54 % 77 % 0 % 1021,9 hPa 0,0 l/m 0,8 km/h (0 Bft) 0 min 0,0 km/h (0 Bft)
03.06.2010 02:28 19,6 C 13,1 C 0,0 UV-I 0,0 C 54 % 77 % 0 % 1021,9 hPa 0,0 l/m 0,4 km/h (0 Bft) 0 min 0,0 km/h (0 Bft)
03.06.2010 02:32 19,6 C 12,9 C 0,0 UV-I 0,0 C 54 % 77 % 0 % 1022,2 hPa 0,0 l/m 0,0 km/h (0 Bft) 0 min 0,0 km/h (0 Bft)
03.06.2010 02:36 19,6 C 12,8 C 0,0 UV-I 0,0 C 54 % 77 % 0 % 1022,2 hPa 0,0 l/m 0,0 km/h (0 Bft) 0 min 0,0 km/h (0 Bft)
03.06.2010 02:38 19,5 C 12,7 C 0,0 UV-I 0,0 C 54 % 77 % 0 % 1022,2 hPa 0,0 l/m 0,0 km/h (0 Bft) 0 min 0,0 km/h (0 Bft)
03.06.2010 02:40 19,5 C 12,6 C 0,0 UV-I 0,0 C 54 % 78 % 0 % 1022,2 hPa 0,0 l/m 0,0 km/h (0 Bft) 0 min 0,0 km/h (0 Bft)
03.06.2010 02:44 19,5 C 12,5 C 0,0 UV-I 0,0 C 54 % 78 % 0 % 1022,2 hPa 0,0 l/m 0,0 km/h (0 Bft) 0 min 0,0 km/h (0 Bft)
03.06.2010 02:46 19,5 C 12,5 C 0,0 UV-I 0,0 C 54 % 78 % 0 % 1022,2 hPa 0,0 l/m 0,0 km/h (0 Bft) 0 min 0,0 km/h (0 Bft)
03.06.2010 02:52 19,4 C 12,3 C 0,0 UV-I 0,0 C 54 % 79 % 0 % 1022,2 hPa 0,0 l/m 0,0 km/h (0 Bft) 0 min 0,0 km/h (0 Bft)
03.06.2010 02:54 19,4 C 12,2 C 0,0 UV-I 0,0 C 54 % 79 % 0 % 1022,2 hPa 0,0 l/m 0,0 km/h (0 Bft) 0 min 0,0 km/h (0 Bft)
03.06.2010 02:56 19,4 C 12,3 C 0,0 UV-I 0,0 C 54 % 79 % 0 % 1022,2 hPa 0,0 l/m 0,0 km/h (0 Bft) 0 min 0,0 km/h (0 Bft)
03.06.2010 02:58 19,4 C 12,1 C 0,0 UV-I 0,0 C 54 % 79 % 0 % 1022,2 hPa 0,0 l/m 0,0 km/h (0 Bft) 0 min 0,0 km/h (0 Bft)
03.06.2010 03:00 19,4 C 12,0 C 0,0 UV-I 0,0 C 54 % 80 % 0 % 1022,2 hPa 0,0 l/m 0,0 km/h (0 Bft) 0 min 0,0 km/h (0 Bft)
03.06.2010 03:06 19,2 C 11,9 C 0,0 UV-I 0,0 C 54 % 81 % 0 % 1022,2 hPa 0,0 l/m 0,0 km/h (0 Bft) 0 min 0,0 km/h (0 Bft)
03.06.2010 03:12 19,3 C 11,9 C 0,0 UV-I 0,0 C 54 % 81 % 0 % 1022,1 hPa 0,0 l/m 0,0 km/h (0 Bft) 0 min 0,0 km/h (0 Bft)
03.06.2010 03:14 19,2 C 11,9 C 0,0 UV-I 0,0 C 54 % 81 % 0 % 1022,1 hPa 0,0 l/m 0,0 km/h (0 Bft) 0 min 3,2 km/h (1 Bft)
03.06.2010 03:22 19,2 C 11,7 C 0,0 UV-I 0,0 C 54 % 81 % 0 % 1022,1 hPa 0,0 l/m 0,0 km/h (0 Bft) 0 min 0,0 km/h (0 Bft)
03.06.2010 03:28 19,2 C 11,7 C 0,0 UV-I 0,0 C 54 % 81 % 0 % 1022,1 hPa 0,0 l/m 0,0 km/h (0 Bft) 0 min 0,0 km/h (0 Bft)
03.06.2010 03:30 19,2 C 11,7 C 0,0 UV-I 0,0 C 54 % 81 % 0 % 1022,1 hPa 0,0 l/m 0,0 km/h (0 Bft) 0 min 0,0 km/h (0 Bft)
03.06.2010 03:32 19,1 C 11,6 C 0,0 UV-I 0,0 C 54 % 82 % 0 % 1022,2 hPa 0,0 l/m 0,0 km/h (0 Bft) 0 min 0,0 km/h (0 Bft)
03.06.2010 03:34 19,2 C 11,5 C 0,0 UV-I 0,0 C 54 % 82 % 0 % 1022,2 hPa 0,0 l/m 0,0 km/h (0 Bft) 0 min 0,0 km/h (0 Bft)
03.06.2010 03:38 19,1 C 11,5 C 0,0 UV-I 0,0 C 54 % 82 % 0 % 1022,2 hPa 0,0 l/m 0,0 km/h (0 Bft) 0 min 0,0 km/h (0 Bft)
03.06.2010 03:43 19,1 C 11,4 C 0,0 UV-I 0,0 C 54 % 82 % 0 % 1022,2 hPa 0,0 l/m 0,0 km/h (0 Bft) 0 min 0,0 km/h (0 Bft)
03.06.2010 03:48 19,0 C 11,2 C 0,0 UV-I 0,0 C 54 % 83 % 0 % 1022,2 hPa 0,0 l/m 0,0 km/h (0 Bft) 0 min 0,0 km/h (0 Bft)
03.06.2010 03:53 19,0 C 11,3 C 0,0 UV-I 0,0 C 54 % 83 % 0 % 1022,1 hPa 0,0 l/m 0,4 km/h (0 Bft) 0 min 0,0 km/h (0 Bft)
03.06.2010 03:58 19,0 C 11,2 C 0,0 UV-I 0,0 C 54 % 83 % 0 % 1022,1 hPa 0,0 l/m 0,4 km/h (0 Bft) 0 min 0,0 km/h (0 Bft)
03.06.2010 04:03 19,0 C 11,1 C 0,0 UV-I 0,0 C 54 % 83 % 0 % 1022,1 hPa 0,0 l/m 0,4 km/h (0 Bft) 0 min 0,0 km/h (0 Bft)
03.06.2010 04:08 18,9 C 11,1 C 0,0 UV-I 0,0 C 54 % 83 % 0 % 1022,1 hPa 0,0 l/m 1,2 km/h (1 Bft) 0 min 3,9 km/h (1 Bft)
03.06.2010 04:13 18,9 C 11,1 C 0,0 UV-I 0,0 C 54 % 83 % 0 % 1022,3 hPa 0,0 l/m 0,8 km/h (0 Bft) 0 min 0,0 km/h (0 Bft)
03.06.2010 04:18 18,9 C 11,1 C 0,0 UV-I 0,0 C 54 % 83 % 0 % 1022,3 hPa 0,0 l/m 0,4 km/h (0 Bft) 0 min 0,0 km/h (0 Bft)
03.06.2010 04:23 18,8 C 11,1 C 0,0 UV-I 0,0 C 54 % 83 % 0 % 1022,3 hPa 0,0 l/m 0,4 km/h (0 Bft) 0 min 0,0 km/h (0 Bft)
03.06.2010 04:26 18,8 C 11,0 C 0,0 UV-I 0,0 C 54 % 83 % 0 % 1022,3 hPa 0,0 l/m 0,4 km/h (0 Bft) 0 min 0,0 km/h (0 Bft)
03.06.2010 04:30 18,8 C 10,9 C 0,0 UV-I 0,0 C 54 % 83 % 0 % 1022,3 hPa 0,0 l/m 0,0 km/h (0 Bft) 0 min 3,5 km/h (1 Bft)
03.06.2010 04:32 18,8 C 10,9 C 0,0 UV-I 0,0 C 54 % 83 % 0 % 1022,4 hPa 0,0 l/m 0,0 km/h (0 Bft) 0 min 0,0 km/h (0 Bft)
03.06.2010 04:34 18,8 C 10,8 C 0,0 UV-I 0,0 C 54 % 83 % 0 % 1022,4 hPa 0,0 l/m 0,0 km/h (0 Bft) 0 min 0,0 km/h (0 Bft)
03.06.2010 04:36 18,8 C 10,8 C 0,0 UV-I 0,0 C 54 % 84 % 0 % 1022,4 hPa 0,0 l/m 0,0 km/h (0 Bft) 0 min 0,0 km/h (0 Bft)
03.06.2010 04:38 18,8 C 10,8 C 0,0 UV-I 0,0 C 54 % 84 % 0 % 1022,4 hPa 0,0 l/m 0,0 km/h (0 Bft) 0 min 0,0 km/h (0 Bft)
03.06.2010 04:40 18,8 C 10,7 C 0,0 UV-I 0,0 C 54 % 84 % 0 % 1022,4 hPa 0,0 l/m 0,0 km/h (0 Bft) 0 min 4,5 km/h (1 Bft)
03.06.2010 04:42 18,8 C 10,7 C 0,0 UV-I 0,0 C 54 % 84 % 0 % 1022,4 hPa 0,0 l/m 0,4 km/h (0 Bft) 0 min 0,0 km/h (0 Bft)
03.06.2010 04:44 18,8 C 10,7 C 0,0 UV-I 0,0 C 54 % 84 % 0 % 1022,4 hPa 0,0 l/m 0,4 km/h (0 Bft) 0 min 0,0 km/h (0 Bft)
03.06.2010 04:46 18,7 C 10,7 C 0,0 UV-I 0,0 C 54 % 84 % 0 % 1022,4 hPa 0,0 l/m 0,8 km/h (0 Bft) 0 min 5,8 km/h (2 Bft)
03.06.2010 04:48 18,7 C 10,6 C 0,0 UV-I 0,0 C 54 % 84 % 0 % 1022,4 hPa 0,0 l/m 1,2 km/h (1 Bft) 0 min 0,0 km/h (0 Bft)
03.06.2010 04:50 18,7 C 10,6 C 0,0 UV-I 0,0 C 54 % 84 % 0 % 1022,4 hPa 0,0 l/m 1,2 km/h (1 Bft) 0 min 3,5 km/h (1 Bft)
03.06.2010 04:52 18,7 C 10,6 C 0,0 UV-I 0,0 C 54 % 84 % 0 % 1022,4 hPa 0,0 l/m 1,2 km/h (1 Bft) 0 min 3,9 km/h (1 Bft)
03.06.2010 04:54 18,7 C 10,6 C 0,0 UV-I 0,0 C 54 % 84 % 0 % 1022,4 hPa 0,0 l/m 1,6 km/h (1 Bft) 0 min 3,9 km/h (1 Bft)
03.06.2010 04:56 18,7 C 10,7 C 0,0 UV-I 0,0 C 54 % 84 % 0 % 1022,4 hPa 0,0 l/m 2,0 km/h (1 Bft) 0 min 3,9 km/h (1 Bft)
03.06.2010 04:58 18,7 C 10,6 C 0,0 UV-I 0,0 C 54 % 84 % 0 % 1022,4 hPa 0,0 l/m 2,0 km/h (1 Bft) 0 min 4,8 km/h (1 Bft)
03.06.2010 05:00 18,6 C 10,6 C 0,0 UV-I 0,0 C 54 % 84 % 0 % 1022,4 hPa 0,0 l/m 2,0 km/h (1 Bft) 0 min 0,0 km/h (0 Bft)
03.06.2010 05:02 18,7 C 10,7 C 0,0 UV-I 0,0 C 54 % 84 % 0 % 1022,4 hPa 0,0 l/m 2,0 km/h (1 Bft) 0 min 3,5 km/h (1 Bft)
03.06.2010 05:04 18,6 C 10,6 C 0,0 UV-I 0,0 C 54 % 84 % 0 % 1022,4 hPa 0,0 l/m 2,0 km/h (1 Bft) 0 min 0,0 km/h (0 Bft)
03.06.2010 05:06 18,6 C 10,7 C 0,0 UV-I 0,0 C 54 % 84 % 0 % 1022,4 hPa 0,0 l/m 1,6 km/h (1 Bft) 0 min 3,9 km/h (1 Bft)
03.06.2010 05:08 18,6 C 10,7 C 0,0 UV-I 0,0 C 54 % 84 % 0 % 1022,4 hPa 0,0 l/m 1,2 km/h (1 Bft) 0 min 0,0 km/h (0 Bft)
03.06.2010 05:10 18,6 C 10,7 C 0,0 UV-I 0,0 C 54 % 84 % 0 % 1022,4 hPa 0,0 l/m 0,8 km/h (0 Bft) 0 min 0,0 km/h (0 Bft)
03.06.2010 05:12 18,6 C 10,7 C 0,0 UV-I 0,0 C 54 % 84 % 0 % 1022,2 hPa 0,0 l/m 0,4 km/h (0 Bft) 0 min 0,0 km/h (0 Bft)
03.06.2010 05:14 18,6 C 10,6 C 0,0 UV-I 0,0 C 54 % 84 % 0 % 1022,2 hPa 0,0 l/m 0,0 km/h (0 Bft) 0 min 0,0 km/h (0 Bft)
03.06.2010 05:16 18,6 C 10,5 C 0,0 UV-I 0,0 C 54 % 84 % 0 % 1022,2 hPa 0,0 l/m 0,0 km/h (0 Bft) 0 min 0,0 km/h (0 Bft)
03.06.2010 05:18 18,5 C 10,4 C 0,0 UV-I 0,0 C 54 % 84 % 0 % 1022,2 hPa 0,0 l/m 0,0 km/h (0 Bft) 0 min 0,0 km/h (0 Bft)
03.06.2010 05:20 18,6 C 10,4 C 0,0 UV-I 0,0 C 54 % 84 % 0 % 1022,2 hPa 0,0 l/m 0,0 km/h (0 Bft) 0 min 0,0 km/h (0 Bft)
03.06.2010 05:22 18,5 C 10,4 C 0,0 UV-I 0,0 C 54 % 84 % 0 % 1022,2 hPa 0,0 l/m 0,0 km/h (0 Bft) 0 min 0,0 km/h (0 Bft)
03.06.2010 05:24 18,5 C 10,3 C 0,0 UV-I 0,0 C 54 % 84 % 0 % 1022,2 hPa 0,0 l/m 0,0 km/h (0 Bft) 0 min 0,0 km/h (0 Bft)
03.06.2010 05:26 18,5 C 10,3 C 0,0 UV-I 0,0 C 54 % 85 % 0 % 1022,2 hPa 0,0 l/m 0,0 km/h (0 Bft) 0 min 0,0 km/h (0 Bft)
03.06.2010 05:28 18,5 C 10,3 C 0,0 UV-I 0,0 C 54 % 85 % 0 % 1022,2 hPa 0,0 l/m 0,4 km/h (0 Bft) 0 min 0,0 km/h (0 Bft)
03.06.2010 05:30 18,4 C 10,3 C 0,0 UV-I 0,0 C 54 % 85 % 0 % 1022,2 hPa 0,0 l/m 0,4 km/h (0 Bft) 0 min 0,0 km/h (0 Bft)
03.06.2010 05:32 18,4 C 10,2 C 0,0 UV-I 0,0 C 54 % 85 % 0 % 1021,6 hPa 0,0 l/m 0,8 km/h (0 Bft) 0 min 5,8 km/h (2 Bft)
03.06.2010 05:34 18,4 C 10,3 C 0,0 UV-I 0,0 C 54 % 85 % 0 % 1021,6 hPa 0,0 l/m 0,8 km/h (0 Bft) 0 min 7,1 km/h (2 Bft)
03.06.2010 05:38 18,4 C 10,2 C 0,0 UV-I 0,0 C 54 % 85 % 0 % 1021,6 hPa 0,0 l/m 1,2 km/h (1 Bft) 0 min 3,2 km/h (1 Bft)
03.06.2010 05:40 18,4 C 10,3 C 0,0 UV-I 0,0 C 54 % 85 % 0 % 1021,6 hPa 0,0 l/m 1,6 km/h (1 Bft) 0 min 0,0 km/h (0 Bft)
03.06.2010 05:42 18,4 C 10,3 C 0,0 UV-I 0,0 C 54 % 85 % 0 % 1021,6 hPa 0,0 l/m 1,6 km/h (1 Bft) 0 min 5,5 km/h (1 Bft)
03.06.2010 05:44 18,4 C 10,3 C 0,0 UV-I 0,0 C 54 % 85 % 0 % 1021,6 hPa 0,0 l/m 1,6 km/h (1 Bft) 0 min 4,8 km/h (1 Bft)
03.06.2010 05:46 18,4 C 10,2 C 0,0 UV-I 0,0 C 54 % 85 % 0 % 1021,6 hPa 0,0 l/m 1,2 km/h (1 Bft) 0 min 0,0 km/h (0 Bft)
03.06.2010 05:48 18,4 C 10,2 C 0,0 UV-I 0,0 C 54 % 85 % 0 % 1021,6 hPa 0,0 l/m 2,0 km/h (1 Bft) 0 min 7,1 km/h (2 Bft)
03.06.2010 05:50 18,4 C 10,3 C 0,0 UV-I 0,0 C 54 % 86 % 0 % 1021,6 hPa 0,0 l/m 2,4 km/h (1 Bft) 0 min 3,5 km/h (1 Bft)
03.06.2010 05:52 18,4 C 10,3 C 0,0 UV-I 0,0 C 54 % 86 % 0 % 1021,9 hPa 0,0 l/m 2,8 km/h (1 Bft) 0 min 0,0 km/h (0 Bft)
03.06.2010 05:54 18,4 C 10,2 C 0,0 UV-I 0,0 C 54 % 85 % 0 % 1021,9 hPa 0,0 l/m 3,6 km/h (1 Bft) 0 min 4,2 km/h (1 Bft)
03.06.2010 05:56 18,4 C 10,3 C 0,0 UV-I 0,0 C 54 % 86 % 0 % 1021,9 hPa 0,0 l/m 3,6 km/h (1 Bft) 0 min 4,8 km/h (1 Bft)
03.06.2010 05:58 18,2 C 10,3 C 0,0 UV-I 0,0 C 54 % 86 % 0 % 1021,9 hPa 0,0 l/m 4,0 km/h (1 Bft) 0 min 7,4 km/h (2 Bft)
03.06.2010 06:00 18,2 C 10,3 C 0,0 UV-I 0,0 C 54 % 85 % 0 % 1021,9 hPa 0,0 l/m 3,6 km/h (1 Bft) 0 min 0,0 km/h (0 Bft)
03.06.2010 06:02 18,2 C 10,3 C 0,0 UV-I 0,0 C 54 % 85 % 0 % 1021,9 hPa 0,0 l/m 3,6 km/h (1 Bft) 0 min 7,1 km/h (2 Bft)
03.06.2010 06:04 18,3 C 10,3 C 0,0 UV-I 0,0 C 54 % 85 % 0 % 1021,9 hPa 0,0 l/m 3,6 km/h (1 Bft) 0 min 7,1 km/h (2 Bft)
03.06.2010 06:06 18,2 C 10,3 C 0,0 UV-I 0,0 C 54 % 85 % 0 % 1021,9 hPa 0,0 l/m 3,6 km/h (1 Bft) 0 min 0,0 km/h (0 Bft)
03.06.2010 06:08 18,3 C 10,4 C 0,0 UV-I 0,0 C 54 % 85 % 0 % 1021,9 hPa 0,0 l/m 3,6 km/h (1 Bft) 0 min 6,1 km/h (2 Bft)
03.06.2010 06:10 18,3 C 10,4 C 0,0 UV-I 0,0 C 54 % 85 % 0 % 1021,9 hPa 0,0 l/m 3,2 km/h (1 Bft) 0 min 3,9 km/h (1 Bft)
03.06.2010 06:12 18,3 C 10,4 C 0,1 UV-I 0,0 C 54 % 85 % 0 % 1021,9 hPa 0,0 l/m 3,2 km/h (1 Bft) 0 min 0,0 km/h (0 Bft)
03.06.2010 06:14 18,3 C 10,4 C 0,1 UV-I 0,0 C 54 % 85 % 0 % 1021,9 hPa 0,0 l/m 3,2 km/h (1 Bft) 0 min 4,2 km/h (1 Bft)
03.06.2010 06:16 18,3 C 10,4 C 0,1 UV-I 0,0 C 54 % 85 % 0 % 1021,9 hPa 0,0 l/m 3,2 km/h (1 Bft) 0 min 8,7 km/h (2 Bft)
03.06.2010 06:18 18,3 C 10,5 C 0,1 UV-I 0,0 C 54 % 85 % 0 % 1021,9 hPa 0,0 l/m 4,0 km/h (1 Bft) 0 min 5,8 km/h (2 Bft)
03.06.2010 06:20 18,3 C 10,4 C 0,1 UV-I 0,0 C 54 % 85 % 0 % 1021,9 hPa 0,0 l/m 4,8 km/h (1 Bft) 0 min 7,1 km/h (2 Bft)
03.06.2010 06:22 18,2 C 10,5 C 0,1 UV-I 0,0 C 55 % 85 % 0 % 1021,9 hPa 0,0 l/m 5,2 km/h (1 Bft) 0 min 3,9 km/h (1 Bft)
03.06.2010 06:24 18,2 C 10,5 C 0,1 UV-I 0,0 C 54 % 85 % 0 % 1021,9 hPa 0,0 l/m 6,4 km/h (2 Bft) 0 min 11,9 km/h (2 Bft)
03.06.2010 06:26 18,3 C 10,5 C 0,6 UV-I 0,0 C 54 % 85 % 0 % 1021,9 hPa 0,0 l/m 7,2 km/h (2 Bft) 0 min 8,0 km/h (2 Bft)
03.06.2010 06:28 18,2 C 10,6 C 0,6 UV-I 0,0 C 55 % 85 % 0 % 1021,9 hPa 0,0 l/m 8,0 km/h (2 Bft) 0 min 14,8 km/h (3 Bft)
03.06.2010 06:32 18,2 C 10,6 C 0,8 UV-I 0,0 C 54 % 85 % 0 % 1022,2 hPa 0,0 l/m 8,8 km/h (2 Bft) 0 min 14,2 km/h (3 Bft)
03.06.2010 06:34 18,2 C 10,6 C 0,8 UV-I 0,0 C 55 % 85 % 0 % 1022,2 hPa 0,0 l/m 8,8 km/h (2 Bft) 0 min 6,8 km/h (2 Bft)
03.06.2010 06:38 18,2 C 10,7 C 0,8 UV-I 0,0 C 55 % 85 % 0 % 1022,2 hPa 0,0 l/m 9,6 km/h (2 Bft) 0 min 12,2 km/h (2 Bft)
03.06.2010 06:40 18,2 C 10,8 C 0,8 UV-I 0,0 C 55 % 85 % 0 % 1022,2 hPa 0,0 l/m 9,6 km/h (2 Bft) 0 min 17,4 km/h (3 Bft)
03.06.2010 06:42 18,2 C 10,8 C 0,3 UV-I 0,0 C 55 % 85 % 0 % 1022,2 hPa 0,0 l/m 9,2 km/h (2 Bft) 0 min 12,9 km/h (3 Bft)
03.06.2010 06:48 18,2 C 10,9 C 0,6 UV-I 0,0 C 55 % 85 % 0 % 1022,2 hPa 0,0 l/m 8,8 km/h (2 Bft) 0 min 11,6 km/h (2 Bft)
03.06.2010 06:50 18,2 C 10,9 C 0,6 UV-I 0,0 C 55 % 85 % 0 % 1022,2 hPa 0,0 l/m 8,4 km/h (2 Bft) 0 min 10,3 km/h (2 Bft)
03.06.2010 06:52 18,2 C 10,9 C 0,8 UV-I 0,0 C 55 % 85 % 0 % 1022,4 hPa 0,0 l/m 8,8 km/h (2 Bft) 0 min 18,7 km/h (3 Bft)
03.06.2010 06:54 18,2 C 11,0 C 0,8 UV-I 0,0 C 55 % 85 % 0 % 1022,4 hPa 0,0 l/m 8,0 km/h (2 Bft) 0 min 7,1 km/h (2 Bft)
03.06.2010 06:56 18,2 C 11,0 C 1,0 UV-I 0,0 C 55 % 85 % 0 % 1022,4 hPa 0,0 l/m 8,0 km/h (2 Bft) 0 min 6,4 km/h (2 Bft)
03.06.2010 06:58 18,2 C 11,1 C 1,0 UV-I 0,0 C 55 % 85 % 0 % 1022,4 hPa 0,0 l/m 7,6 km/h (2 Bft) 0 min 6,8 km/h (2 Bft)
03.06.2010 07:02 18,2 C 11,1 C 1,1 UV-I 0,0 C 55 % 85 % 0 % 1022,4 hPa 0,0 l/m 6,8 km/h (2 Bft) 0 min 4,8 km/h (1 Bft)
03.06.2010 07:04 18,2 C 11,1 C 1,1 UV-I 0,0 C 55 % 85 % 0 % 1022,4 hPa 0,0 l/m 6,8 km/h (2 Bft) 0 min 6,4 km/h (2 Bft)
03.06.2010 07:06 18,2 C 11,1 C 0,8 UV-I 0,0 C 55 % 85 % 0 % 1022,4 hPa 0,0 l/m 7,2 km/h (2 Bft) 0 min 7,4 km/h (2 Bft)
03.06.2010 07:08 18,2 C 11,2 C 0,8 UV-I 0,0 C 55 % 84 % 0 % 1022,4 hPa 0,0 l/m 7,2 km/h (2 Bft) 0 min 7,4 km/h (2 Bft)
03.06.2010 07:10 18,2 C 11,3 C 0,8 UV-I 0,0 C 55 % 84 % 0 % 1022,4 hPa 0,0 l/m 7,2 km/h (2 Bft) 0 min 6,8 km/h (2 Bft)
03.06.2010 07:12 18,2 C 11,2 C 0,4 UV-I 0,0 C 55 % 84 % 0 % 1022,6 hPa 0,0 l/m 7,2 km/h (2 Bft) 0 min 5,8 km/h (2 Bft)
03.06.2010 07:14 18,2 C 11,3 C 0,4 UV-I 0,0 C 56 % 84 % 0 % 1022,6 hPa 0,0 l/m 7,2 km/h (2 Bft) 0 min 3,5 km/h (1 Bft)
03.06.2010 07:16 18,2 C 11,3 C 0,8 UV-I 0,0 C 56 % 84 % 0 % 1022,6 hPa 0,0 l/m 7,2 km/h (2 Bft) 0 min 9,7 km/h (2 Bft)
03.06.2010 07:18 18,2 C 11,5 C 0,8 UV-I 0,0 C 55 % 84 % 0 % 1022,6 hPa 0,0 l/m 7,2 km/h (2 Bft) 0 min 5,8 km/h (2 Bft)
03.06.2010 07:20 18,2 C 11,4 C 0,8 UV-I 0,0 C 56 % 84 % 0 % 1022,6 hPa 0,0 l/m 6,0 km/h (2 Bft) 0 min 4,8 km/h (1 Bft)
03.06.2010 07:22 18,2 C 11,5 C 0,9 UV-I 0,0 C 56 % 84 % 0 % 1022,6 hPa 0,0 l/m 6,0 km/h (2 Bft) 0 min 3,2 km/h (1 Bft)
03.06.2010 07:24 18,2 C 11,5 C 0,9 UV-I 0,0 C 56 % 84 % 0 % 1022,6 hPa 0,0 l/m 5,6 km/h (1 Bft) 0 min 0,0 km/h (0 Bft)
03.06.2010 07:28 18,2 C 11,5 C 1,0 UV-I 0,0 C 56 % 84 % 0 % 1022,6 hPa 0,0 l/m 4,0 km/h (1 Bft) 0 min 4,2 km/h (1 Bft)
03.06.2010 07:30 18,2 C 11,6 C 1,0 UV-I 0,0 C 56 % 84 % 0 % 1022,6 hPa 0,0 l/m 3,2 km/h (1 Bft) 0 min 0,0 km/h (0 Bft)
03.06.2010 07:32 18,2 C 11,7 C 1,3 UV-I 0,0 C 56 % 83 % 0 % 1023,1 hPa 0,0 l/m 3,6 km/h (1 Bft) 0 min 5,5 km/h (1 Bft)
03.06.2010 07:34 18,2 C 11,6 C 1,3 UV-I 0,0 C 56 % 83 % 0 % 1023,1 hPa 0,0 l/m 4,0 km/h (1 Bft) 0 min 10,9 km/h (2 Bft)
03.06.2010 07:38 18,2 C 11,7 C 1,2 UV-I 0,0 C 56 % 83 % 0 % 1023,1 hPa 0,0 l/m 4,8 km/h (1 Bft) 0 min 11,6 km/h (2 Bft)
03.06.2010 07:40 18,2 C 11,7 C 1,2 UV-I 0,0 C 56 % 82 % 0 % 1023,1 hPa 0,0 l/m 6,4 km/h (2 Bft) 0 min 11,6 km/h (2 Bft)
03.06.2010 07:42 18,3 C 11,7 C 1,4 UV-I 0,0 C 56 % 82 % 0 % 1023,1 hPa 0,0 l/m 7,2 km/h (2 Bft) 0 min 6,4 km/h (2 Bft)
03.06.2010 07:48 18,2 C 11,9 C 1,3 UV-I 0,0 C 56 % 81 % 0 % 1023,1 hPa 0,0 l/m 9,2 km/h (2 Bft) 0 min 10,0 km/h (2 Bft)
03.06.2010 07:50 18,3 C 11,9 C 1,3 UV-I 0,0 C 56 % 81 % 0 % 1023,1 hPa 0,0 l/m 8,4 km/h (2 Bft) 0 min 6,4 km/h (2 Bft)
03.06.2010 07:52 18,3 C 12,0 C 1,2 UV-I 0,0 C 56 % 81 % 0 % 1022,8 hPa 0,0 l/m 7,6 km/h (2 Bft) 0 min 7,1 km/h (2 Bft)
03.06.2010 07:54 18,3 C 12,0 C 1,2 UV-I 0,0 C 56 % 81 % 0 % 1022,8 hPa 0,0 l/m 8,4 km/h (2 Bft) 0 min 10,6 km/h (2 Bft)
03.06.2010 07:56 18,3 C 12,0 C 1,9 UV-I 0,0 C 56 % 81 % 0 % 1022,8 hPa 0,0 l/m 7,6 km/h (2 Bft) 0 min 0,0 km/h (0 Bft)
03.06.2010 07:58 18,3 C 12,2 C 1,9 UV-I 0,0 C 56 % 81 % 0 % 1022,8 hPa 0,0 l/m 6,8 km/h (2 Bft) 0 min 8,0 km/h (2 Bft)
03.06.2010 08:00 18,3 C 12,3 C 1,9 UV-I 0,0 C 56 % 80 % 0 % 1022,8 hPa 0,0 l/m 7,2 km/h (2 Bft) 0 min 7,7 km/h (2 Bft)
03.06.2010 08:06 18,3 C 12,4 C 1,7 UV-I 0,0 C 56 % 80 % 0 % 1022,8 hPa 0,0 l/m 6,8 km/h (2 Bft) 0 min 7,1 km/h (2 Bft)
03.06.2010 08:08 18,2 C 12,5 C 1,7 UV-I 0,7 C 56 % 80 % 20 % 1022,8 hPa 0,0 l/m 6,4 km/h (2 Bft) 0 min 7,1 km/h (2 Bft)
03.06.2010 08:14 18,4 C 12,6 C 1,6 UV-I 2,6 C 56 % 79 % 74 % 1022,6 hPa 0,0 l/m 6,0 km/h (2 Bft) 0 min 6,4 km/h (2 Bft)
03.06.2010 08:16 18,4 C 12,6 C 2,3 UV-I 3,5 C 56 % 79 % 100 % 1022,6 hPa 0,0 l/m 6,4 km/h (2 Bft) 2 min 7,4 km/h (2 Bft)
03.06.2010 08:18 18,4 C 12,8 C 2,3 UV-I 3,8 C 56 % 79 % 100 % 1022,6 hPa 0,0 l/m 7,2 km/h (2 Bft) 2 min 5,5 km/h (1 Bft)
03.06.2010 08:20 18,4 C 12,8 C 2,3 UV-I 4,4 C 56 % 79 % 100 % 1022,6 hPa 0,0 l/m 7,6 km/h (2 Bft) 2 min 8,0 km/h (2 Bft)
03.06.2010 08:22 18,4 C 12,9 C 2,2 UV-I 4,8 C 56 % 79 % 100 % 1022,6 hPa 0,0 l/m 7,6 km/h (2 Bft) 2 min 10,6 km/h (2 Bft)
03.06.2010 08:24 18,4 C 13,0 C 2,2 UV-I 5,1 C 56 % 78 % 100 % 1022,6 hPa 0,0 l/m 6,8 km/h (2 Bft) 2 min 5,1 km/h (1 Bft)
03.06.2010 08:26 18,4 C 13,1 C 2,3 UV-I 5,4 C 56 % 78 % 100 % 1022,6 hPa 0,0 l/m 7,2 km/h (2 Bft) 2 min 9,0 km/h (2 Bft)
03.06.2010 08:28 18,4 C 13,1 C 2,3 UV-I 5,6 C 56 % 78 % 100 % 1022,6 hPa 0,0 l/m 7,2 km/h (2 Bft) 2 min 11,3 km/h (2 Bft)
03.06.2010 08:30 18,4 C 13,2 C 2,3 UV-I 5,7 C 56 % 77 % 100 % 1022,6 hPa 0,0 l/m 7,6 km/h (2 Bft) 2 min 11,6 km/h (2 Bft)
03.06.2010 08:32 18,4 C 13,3 C 3,3 UV-I 5,7 C 56 % 77 % 100 % 1022,9 hPa 0,0 l/m 7,2 km/h (2 Bft) 2 min 3,5 km/h (1 Bft)
03.06.2010 08:34 18,4 C 13,4 C 3,3 UV-I 5,9 C 56 % 77 % 100 % 1022,9 hPa 0,0 l/m 7,2 km/h (2 Bft) 2 min 8,7 km/h (2 Bft)
03.06.2010 08:36 18,4 C 13,6 C 3,8 UV-I 5,9 C 56 % 76 % 100 % 1022,9 hPa 0,0 l/m 8,4 km/h (2 Bft) 2 min 5,8 km/h (2 Bft)
03.06.2010 08:38 18,5 C 13,7 C 3,8 UV-I 6,0 C 56 % 76 % 100 % 1022,9 hPa 0,0 l/m 7,6 km/h (2 Bft) 2 min 8,4 km/h (2 Bft)
03.06.2010 08:40 18,5 C 13,7 C 3,8 UV-I 6,2 C 56 % 76 % 100 % 1022,9 hPa 0,0 l/m 7,6 km/h (2 Bft) 2 min 11,3 km/h (2 Bft)
03.06.2010 08:42 18,5 C 13,9 C 3,9 UV-I 6,1 C 56 % 75 % 100 % 1022,9 hPa 0,0 l/m 7,2 km/h (2 Bft) 2 min 11,6 km/h (2 Bft)
03.06.2010 08:44 18,5 C 13,9 C 3,9 UV-I 6,4 C 56 % 75 % 100 % 1022,9 hPa 0,0 l/m 6,8 km/h (2 Bft) 2 min 5,5 km/h (1 Bft)
03.06.2010 08:46 18,5 C 13,9 C 5,1 UV-I 6,6 C 56 % 75 % 100 % 1022,9 hPa 0,0 l/m 6,4 km/h (2 Bft) 2 min 4,2 km/h (1 Bft)
03.06.2010 08:48 18,5 C 14,0 C 5,1 UV-I 6,8 C 56 % 74 % 100 % 1022,9 hPa 0,0 l/m 6,4 km/h (2 Bft) 2 min 13,2 km/h (3 Bft)
03.06.2010 08:50 18,5 C 14,0 C 5,1 UV-I 6,9 C 56 % 75 % 100 % 1022,9 hPa 0,0 l/m 5,6 km/h (1 Bft) 2 min 5,1 km/h (1 Bft)
03.06.2010 08:52 18,5 C 14,3 C 6,0 UV-I 6,8 C 56 % 74 % 100 % 1022,9 hPa 0,0 l/m 5,2 km/h (1 Bft) 2 min 10,9 km/h (2 Bft)
03.06.2010 08:54 18,6 C 14,3 C 6,0 UV-I 6,9 C 56 % 72 % 100 % 1022,9 hPa 0,0 l/m 6,4 km/h (2 Bft) 2 min 7,7 km/h (2 Bft)
03.06.2010 08:56 18,6 C 14,2 C 6,8 UV-I 6,8 C 56 % 72 % 100 % 1022,9 hPa 0,0 l/m 6,4 km/h (2 Bft) 2 min 8,7 km/h (2 Bft)
03.06.2010 08:58 18,6 C 14,3 C 6,8 UV-I 6,7 C 56 % 73 % 100 % 1022,9 hPa 0,0 l/m 7,2 km/h (2 Bft) 2 min 6,8 km/h (2 Bft)
03.06.2010 09:00 18,6 C 14,5 C 6,8 UV-I 6,5 C 56 % 73 % 100 % 1022,9 hPa 0,0 l/m 7,6 km/h (2 Bft) 2 min 6,8 km/h (2 Bft)
03.06.2010 09:02 18,6 C 14,6 C 7,7 UV-I 6,5 C 56 % 73 % 100 % 1022,9 hPa 0,0 l/m 8,0 km/h (2 Bft) 2 min 6,4 km/h (2 Bft)
03.06.2010 09:04 18,6 C 14,7 C 7,7 UV-I 6,7 C 56 % 72 % 100 % 1022,9 hPa 0,0 l/m 7,2 km/h (2 Bft) 2 min 7,7 km/h (2 Bft)
03.06.2010 09:06 18,6 C 14,9 C 8,7 UV-I 6,7 C 56 % 72 % 100 % 1022,9 hPa 0,0 l/m 6,4 km/h (2 Bft) 2 min 8,4 km/h (2 Bft)
03.06.2010 09:08 18,6 C 14,9 C 8,7 UV-I 6,9 C 56 % 72 % 100 % 1022,9 hPa 0,0 l/m 5,6 km/h (1 Bft) 2 min 5,1 km/h (1 Bft)
03.06.2010 09:10 18,6 C 15,1 C 8,7 UV-I 6,8 C 56 % 72 % 100 % 1022,9 hPa 0,0 l/m 5,6 km/h (1 Bft) 2 min 4,8 km/h (1 Bft)
03.06.2010 09:12 18,6 C 15,1 C 9,7 UV-I 6,8 C 56 % 71 % 100 % 1022,9 hPa 0,0 l/m 6,4 km/h (2 Bft) 2 min 12,9 km/h (3 Bft)
03.06.2010 09:14 18,7 C 15,2 C 9,7 UV-I 6,7 C 56 % 70 % 100 % 1022,9 hPa 0,0 l/m 7,6 km/h (2 Bft) 2 min 12,9 km/h (3 Bft)
03.06.2010 09:16 18,7 C 15,3 C 10,9 UV-I 6,6 C 56 % 71 % 100 % 1022,9 hPa 0,0 l/m 7,2 km/h (2 Bft) 2 min 8,7 km/h (2 Bft)
03.06.2010 09:18 18,7 C 15,2 C 10,9 UV-I 6,8 C 56 % 70 % 100 % 1022,9 hPa 0,0 l/m 7,6 km/h (2 Bft) 2 min 6,1 km/h (2 Bft)
03.06.2010 09:20 18,7 C 15,5 C 10,9 UV-I 6,6 C 56 % 70 % 100 % 1022,9 hPa 0,0 l/m 7,6 km/h (2 Bft) 2 min 9,7 km/h (2 Bft)
03.06.2010 09:22 18,7 C 15,5 C 12,2 UV-I 6,6 C 56 % 70 % 100 % 1022,9 hPa 0,0 l/m 6,8 km/h (2 Bft) 2 min 4,8 km/h (1 Bft)
03.06.2010 09:24 18,7 C 15,6 C 12,2 UV-I 6,7 C 56 % 70 % 100 % 1022,9 hPa 0,0 l/m 6,0 km/h (2 Bft) 2 min 0,0 km/h (0 Bft)
03.06.2010 09:26 18,7 C 15,6 C 13,2 UV-I 6,9 C 56 % 68 % 100 % 1022,9 hPa 0,0 l/m 6,8 km/h (2 Bft) 2 min 8,0 km/h (2 Bft)
03.06.2010 09:28 18,8 C 15,7 C 13,2 UV-I 6,7 C 56 % 69 % 100 % 1022,9 hPa 0,0 l/m 6,8 km/h (2 Bft) 2 min 9,7 km/h (2 Bft)
03.06.2010 09:30 18,8 C 15,7 C 13,2 UV-I 6,7 C 56 % 69 % 100 % 1022,9 hPa 0,0 l/m 7,2 km/h (2 Bft) 2 min 7,7 km/h (2 Bft)
03.06.2010 09:32 18,8 C 15,7 C 13,7 UV-I 6,8 C 56 % 69 % 100 % 1022,9 hPa 0,0 l/m 7,2 km/h (2 Bft) 2 min 5,5 km/h (1 Bft)
03.06.2010 09:34 18,8 C 15,9 C 13,7 UV-I 6,7 C 56 % 69 % 100 % 1022,9 hPa 0,0 l/m 7,6 km/h (2 Bft) 2 min 6,4 km/h (2 Bft)
03.06.2010 09:36 18,8 C 15,9 C 14,7 UV-I 6,7 C 56 % 69 % 100 % 1022,9 hPa 0,0 l/m 8,0 km/h (2 Bft) 2 min 10,3 km/h (2 Bft)
03.06.2010 09:38 18,8 C 15,9 C 14,7 UV-I 6,8 C 56 % 68 % 100 % 1022,9 hPa 0,0 l/m 8,4 km/h (2 Bft) 2 min 16,7 km/h (3 Bft)
03.06.2010 09:40 18,8 C 15,9 C 14,7 UV-I 6,7 C 56 % 69 % 100 % 1022,9 hPa 0,0 l/m 8,8 km/h (2 Bft) 2 min 6,4 km/h (2 Bft)
03.06.2010 09:42 18,8 C 16,0 C 14,4 UV-I 6,6 C 56 % 68 % 100 % 1022,9 hPa 0,0 l/m 9,2 km/h (2 Bft) 2 min 8,0 km/h (2 Bft)
03.06.2010 09:44 18,8 C 16,1 C 14,4 UV-I 6,5 C 56 % 69 % 100 % 1022,9 hPa 0,0 l/m 8,4 km/h (2 Bft) 2 min 3,2 km/h (1 Bft)
03.06.2010 09:46 18,8 C 16,1 C 15,4 UV-I 6,9 C 56 % 69 % 100 % 1022,9 hPa 0,0 l/m 7,2 km/h (2 Bft) 2 min 0,0 km/h (0 Bft)
03.06.2010 09:48 18,8 C 16,2 C 15,4 UV-I 7,1 C 56 % 68 % 100 % 1022,9 hPa 0,0 l/m 6,4 km/h (2 Bft) 2 min 3,9 km/h (1 Bft)
03.06.2010 09:50 18,8 C 16,3 C 15,4 UV-I 7,2 C 56 % 68 % 100 % 1022,9 hPa 0,0 l/m 5,6 km/h (1 Bft) 2 min 13,2 km/h (3 Bft)
03.06.2010 09:52 18,8 C 16,5 C 16,0 UV-I 7,0 C 56 % 68 % 100 % 1022,9 hPa 0,0 l/m 5,2 km/h (1 Bft) 2 min 3,2 km/h (1 Bft)
03.06.2010 09:54 18,8 C 16,5 C 16,0 UV-I 7,0 C 56 % 68 % 100 % 1022,9 hPa 0,0 l/m 5,6 km/h (1 Bft) 2 min 6,8 km/h (2 Bft)
03.06.2010 09:56 18,8 C 16,5 C 15,9 UV-I 6,9 C 56 % 67 % 100 % 1022,9 hPa 0,0 l/m 6,4 km/h (2 Bft) 2 min 3,5 km/h (1 Bft)
03.06.2010 09:58 18,8 C 16,4 C 15,9 UV-I 6,9 C 56 % 67 % 100 % 1022,9 hPa 0,0 l/m 7,2 km/h (2 Bft) 2 min 9,0 km/h (2 Bft)
03.06.2010 10:00 18,8 C 16,5 C 15,9 UV-I 6,9 C 56 % 66 % 100 % 1022,9 hPa 0,0 l/m 7,6 km/h (2 Bft) 2 min 11,3 km/h (2 Bft)
03.06.2010 10:02 18,9 C 16,5 C 15,9 UV-I 6,9 C 56 % 66 % 100 % 1022,9 hPa 0,0 l/m 6,8 km/h (2 Bft) 2 min 5,8 km/h (2 Bft)
03.06.2010 10:04 18,9 C 16,6 C 15,9 UV-I 6,9 C 56 % 67 % 100 % 1022,9 hPa 0,0 l/m 7,2 km/h (2 Bft) 2 min 11,9 km/h (2 Bft)
03.06.2010 10:06 18,9 C 16,7 C 15,9 UV-I 6,9 C 56 % 67 % 100 % 1022,9 hPa 0,0 l/m 7,6 km/h (2 Bft) 2 min 11,6 km/h (2 Bft)
03.06.2010 10:08 18,9 C 16,8 C 15,9 UV-I 6,8 C 56 % 65 % 100 % 1022,9 hPa 0,0 l/m 8,4 km/h (2 Bft) 2 min 15,1 km/h (3 Bft)
03.06.2010 10:10 18,9 C 16,8 C 15,9 UV-I 6,5 C 56 % 67 % 100 % 1022,9 hPa 0,0 l/m 8,4 km/h (2 Bft) 2 min 4,2 km/h (1 Bft)
03.06.2010 10:12 18,9 C 16,8 C 15,6 UV-I 6,7 C 56 % 67 % 100 % 1023,1 hPa 0,0 l/m 8,0 km/h (2 Bft) 2 min 9,7 km/h (2 Bft)
03.06.2010 10:14 18,9 C 16,9 C 15,6 UV-I 6,7 C 56 % 67 % 100 % 1023,1 hPa 0,0 l/m 8,0 km/h (2 Bft) 2 min 8,0 km/h (2 Bft)
03.06.2010 10:16 18,9 C 17,0 C 15,1 UV-I 6,9 C 56 % 66 % 100 % 1023,1 hPa 0,0 l/m 8,0 km/h (2 Bft) 2 min 10,6 km/h (2 Bft)
03.06.2010 10:18 19,0 C 17,1 C 15,1 UV-I 6,9 C 56 % 65 % 100 % 1023,1 hPa 0,0 l/m 8,0 km/h (2 Bft) 2 min 12,2 km/h (2 Bft)
03.06.2010 10:20 19,0 C 17,1 C 15,1 UV-I 6,7 C 56 % 65 % 100 % 1023,1 hPa 0,0 l/m 7,6 km/h (2 Bft) 2 min 12,6 km/h (3 Bft)
03.06.2010 10:22 19,0 C 17,1 C 15,4 UV-I 6,6 C 56 % 65 % 100 % 1023,1 hPa 0,0 l/m 8,8 km/h (2 Bft) 2 min 6,8 km/h (2 Bft)
03.06.2010 10:24 19,0 C 17,2 C 15,4 UV-I 6,5 C 56 % 65 % 100 % 1023,1 hPa 0,0 l/m 8,8 km/h (2 Bft) 2 min 10,3 km/h (2 Bft)
03.06.2010 10:26 19,0 C 17,2 C 14,9 UV-I 6,6 C 56 % 65 % 100 % 1023,1 hPa 0,0 l/m 10,4 km/h (2 Bft) 2 min 18,0 km/h (3 Bft)
03.06.2010 10:28 19,0 C 17,2 C 14,9 UV-I 6,5 C 56 % 66 % 100 % 1023,1 hPa 0,0 l/m 9,6 km/h (2 Bft) 2 min 10,9 km/h (2 Bft)
03.06.2010 10:30 19,0 C 17,5 C 14,9 UV-I 6,3 C 56 % 65 % 100 % 1023,1 hPa 0,0 l/m 9,2 km/h (2 Bft) 2 min 8,4 km/h (2 Bft)
03.06.2010 10:32 19,0 C 17,4 C 14,8 UV-I 6,6 C 56 % 64 % 100 % 1022,9 hPa 0,0 l/m 9,2 km/h (2 Bft) 2 min 13,2 km/h (3 Bft)
03.06.2010 10:34 19,0 C 17,5 C 14,8 UV-I 6,3 C 56 % 64 % 100 % 1022,9 hPa 0,0 l/m 9,2 km/h (2 Bft) 2 min 8,4 km/h (2 Bft)
03.06.2010 10:36 19,0 C 17,6 C 14,4 UV-I 6,2 C 56 % 64 % 100 % 1022,9 hPa 0,0 l/m 9,6 km/h (2 Bft) 2 min 15,8 km/h (3 Bft)
03.06.2010 10:38 19,1 C 17,5 C 14,4 UV-I 6,3 C 56 % 63 % 100 % 1022,9 hPa 0,0 l/m 10,4 km/h (2 Bft) 2 min 18,3 km/h (3 Bft)
03.06.2010 10:40 19,1 C 17,5 C 14,4 UV-I 6,0 C 56 % 63 % 100 % 1022,9 hPa 0,0 l/m 12,0 km/h (2 Bft) 2 min 16,7 km/h (3 Bft)
03.06.2010 10:42 19,1 C 17,4 C 14,2 UV-I 5,9 C 56 % 64 % 100 % 1022,9 hPa 0,0 l/m 12,0 km/h (2 Bft) 2 min 5,1 km/h (1 Bft)
03.06.2010 10:44 19,1 C 17,6 C 14,2 UV-I 5,8 C 56 % 64 % 100 % 1022,9 hPa 0,0 l/m 12,0 km/h (2 Bft) 2 min 10,6 km/h (2 Bft)
03.06.2010 10:46 19,1 C 17,7 C 14,0 UV-I 5,8 C 56 % 64 % 100 % 1022,9 hPa 0,0 l/m 12,4 km/h (3 Bft) 2 min 12,6 km/h (3 Bft)
03.06.2010 10:48 19,1 C 17,9 C 14,0 UV-I 5,7 C 56 % 64 % 100 % 1022,9 hPa 0,0 l/m 12,0 km/h (2 Bft) 2 min 9,7 km/h (2 Bft)
03.06.2010 10:50 19,1 C 17,9 C 14,0 UV-I 5,9 C 56 % 64 % 100 % 1022,9 hPa 0,0 l/m 10,8 km/h (2 Bft) 2 min 9,7 km/h (2 Bft)
03.06.2010 10:52 19,2 C 18,0 C 13,6 UV-I 5,8 C 56 % 63 % 100 % 1023,1 hPa 0,0 l/m 10,0 km/h (2 Bft) 2 min 15,8 km/h (3 Bft)
03.06.2010 10:54 19,2 C 18,1 C 13,6 UV-I 5,9 C 56 % 64 % 100 % 1023,1 hPa 0,0 l/m 9,2 km/h (2 Bft) 2 min 8,7 km/h (2 Bft)
03.06.2010 10:56 19,2 C 18,3 C 13,6 UV-I 5,9 C 56 % 62 % 100 % 1023,1 hPa 0,0 l/m 9,6 km/h (2 Bft) 2 min 7,4 km/h (2 Bft)
03.06.2010 10:58 19,2 C 18,3 C 13,6 UV-I 5,9 C 56 % 62 % 100 % 1023,1 hPa 0,0 l/m 9,2 km/h (2 Bft) 2 min 6,8 km/h (2 Bft)
03.06.2010 11:00 19,2 C 18,4 C 13,6 UV-I 6,1 C 56 % 63 % 100 % 1023,1 hPa 0,0 l/m 7,2 km/h (2 Bft) 2 min 21,9 km/h (4 Bft)
03.06.2010 11:02 19,2 C 18,4 C 13,6 UV-I 6,5 C 56 % 63 % 100 % 1023,1 hPa 0,0 l/m 7,2 km/h (2 Bft) 2 min 19,3 km/h (3 Bft)
03.06.2010 11:04 19,2 C 18,6 C 13,6 UV-I 6,3 C 56 % 61 % 100 % 1023,1 hPa 0,0 l/m 8,0 km/h (2 Bft) 2 min 18,3 km/h (3 Bft)
03.06.2010 11:06 19,2 C 18,5 C 13,8 UV-I 6,2 C 56 % 60 % 100 % 1023,1 hPa 0,0 l/m 8,8 km/h (2 Bft) 2 min 9,0 km/h (2 Bft)
03.06.2010 11:08 19,2 C 18,5 C 13,8 UV-I 6,0 C 56 % 62 % 100 % 1023,1 hPa 0,0 l/m 8,0 km/h (2 Bft) 2 min 0,0 km/h (0 Bft)
03.06.2010 11:10 19,2 C 18,6 C 13,8 UV-I 6,1 C 56 % 61 % 100 % 1023,1 hPa 0,0 l/m 9,2 km/h (2 Bft) 2 min 8,4 km/h (2 Bft)
03.06.2010 11:12 19,2 C 18,7 C 13,9 UV-I 6,1 C 56 % 61 % 100 % 1023,1 hPa 0,0 l/m 9,6 km/h (2 Bft) 2 min 11,6 km/h (2 Bft)
03.06.2010 11:14 19,2 C 18,8 C 13,9 UV-I 6,1 C 56 % 60 % 100 % 1023,1 hPa 0,0 l/m 8,8 km/h (2 Bft) 2 min 6,8 km/h (2 Bft)
03.06.2010 11:16 19,2 C 18,8 C 13,6 UV-I 6,3 C 56 % 60 % 100 % 1023,1 hPa 0,0 l/m 7,6 km/h (2 Bft) 2 min 6,8 km/h (2 Bft)
03.06.2010 11:18 19,2 C 19,0 C 13,6 UV-I 6,2 C 56 % 60 % 100 % 1023,1 hPa 0,0 l/m 8,8 km/h (2 Bft) 2 min 28,0 km/h (4 Bft)
03.06.2010 11:20 19,3 C 19,1 C 13,6 UV-I 6,1 C 56 % 59 % 100 % 1023,1 hPa 0,0 l/m 9,6 km/h (2 Bft) 2 min 28,0 km/h (4 Bft)
03.06.2010 11:22 19,3 C 19,0 C 13,0 UV-I 6,0 C 56 % 60 % 100 % 1023,1 hPa 0,0 l/m 10,0 km/h (2 Bft) 2 min 14,2 km/h (3 Bft)
03.06.2010 11:24 19,3 C 19,1 C 13,0 UV-I 5,9 C 56 % 60 % 100 % 1023,1 hPa 0,0 l/m 10,8 km/h (2 Bft) 2 min 8,0 km/h (2 Bft)
03.06.2010 11:26 19,3 C 19,1 C 12,3 UV-I 5,9 C 56 % 62 % 100 % 1023,1 hPa 0,0 l/m 10,0 km/h (2 Bft) 2 min 5,5 km/h (1 Bft)
03.06.2010 11:28 19,2 C 19,3 C 12,3 UV-I 6,1 C 56 % 58 % 100 % 1023,1 hPa 0,0 l/m 10,8 km/h (2 Bft) 2 min 17,1 km/h (3 Bft)
03.06.2010 11:30 19,3 C 19,3 C 12,3 UV-I 5,9 C 56 % 57 % 100 % 1023,1 hPa 0,0 l/m 10,4 km/h (2 Bft) 2 min 6,8 km/h (2 Bft)
03.06.2010 11:32 19,2 C 19,3 C 11,9 UV-I 5,8 C 56 % 58 % 100 % 1023,3 hPa 0,0 l/m 9,6 km/h (2 Bft) 2 min 4,2 km/h (1 Bft)
03.06.2010 11:34 19,2 C 19,3 C 11,9 UV-I 5,9 C 56 % 59 % 100 % 1023,3 hPa 0,0 l/m 9,2 km/h (2 Bft) 2 min 12,6 km/h (3 Bft)
03.06.2010 11:36 19,2 C 19,3 C 11,9 UV-I 5,9 C 56 % 58 % 100 % 1023,3 hPa 0,0 l/m 10,0 km/h (2 Bft) 2 min 16,7 km/h (3 Bft)
03.06.2010 11:38 19,4 C 19,3 C 11,9 UV-I 5,6 C 56 % 59 % 100 % 1023,3 hPa 0,0 l/m 12,0 km/h (2 Bft) 2 min 13,5 km/h (3 Bft)
03.06.2010 11:40 19,4 C 19,3 C 11,9 UV-I 5,5 C 56 % 59 % 100 % 1023,3 hPa 0,0 l/m 10,8 km/h (2 Bft) 2 min 7,7 km/h (2 Bft)
03.06.2010 11:42 19,4 C 19,4 C 10,0 UV-I 5,6 C 56 % 60 % 100 % 1023,3 hPa 0,0 l/m 10,4 km/h (2 Bft) 2 min 6,8 km/h (2 Bft)
03.06.2010 11:44 19,4 C 19,5 C 10,0 UV-I 5,8 C 56 % 58 % 100 % 1023,3 hPa 0,0 l/m 10,4 km/h (2 Bft) 2 min 7,4 km/h (2 Bft)
03.06.2010 11:46 19,4 C 19,7 C 9,9 UV-I 5,9 C 56 % 57 % 100 % 1023,3 hPa 0,0 l/m 9,2 km/h (2 Bft) 2 min 17,4 km/h (3 Bft)
03.06.2010 11:48 19,4 C 19,7 C 9,9 UV-I 5,9 C 56 % 57 % 100 % 1023,3 hPa 0,0 l/m 9,2 km/h (2 Bft) 2 min 9,0 km/h (2 Bft)
03.06.2010 11:50 19,4 C 19,8 C 9,9 UV-I 5,8 C 56 % 58 % 100 % 1023,3 hPa 0,0 l/m 8,0 km/h (2 Bft) 2 min 10,3 km/h (2 Bft)
03.06.2010 11:52 19,4 C 19,9 C 9,3 UV-I 5,7 C 56 % 58 % 100 % 1023,4 hPa 0,0 l/m 8,0 km/h (2 Bft) 2 min 3,9 km/h (1 Bft)
03.06.2010 11:54 19,4 C 20,0 C 9,3 UV-I 5,7 C 56 % 56 % 100 % 1023,4 hPa 0,0 l/m 9,2 km/h (2 Bft) 2 min 13,2 km/h (3 Bft)
03.06.2010 11:56 19,4 C 20,0 C 9,1 UV-I 5,6 C 56 % 56 % 100 % 1023,4 hPa 0,0 l/m 10,4 km/h (2 Bft) 2 min 15,8 km/h (3 Bft)
03.06.2010 11:58 19,4 C 19,9 C 9,1 UV-I 5,5 C 56 % 57 % 100 % 1023,4 hPa 0,0 l/m 10,0 km/h (2 Bft) 2 min 19,6 km/h (3 Bft)
03.06.2010 12:00 19,4 C 19,9 C 9,1 UV-I 5,5 C 56 % 57 % 100 % 1023,4 hPa 0,0 l/m 11,6 km/h (2 Bft) 2 min 20,0 km/h (4 Bft)
03.06.2010 12:02 19,5 C 19,9 C 8,6 UV-I 5,3 C 56 % 56 % 100 % 1023,4 hPa 0,0 l/m 12,0 km/h (2 Bft) 2 min 13,2 km/h (3 Bft)
03.06.2010 12:04 19,5 C 19,9 C 8,6 UV-I 5,3 C 56 % 56 % 100 % 1023,4 hPa 0,0 l/m 12,0 km/h (2 Bft) 2 min 13,2 km/h (3 Bft)
03.06.2010 12:06 19,5 C 20,1 C 8,5 UV-I 5,3 C 56 % 58 % 100 % 1023,4 hPa 0,0 l/m 12,0 km/h (2 Bft) 2 min 6,1 km/h (2 Bft)
03.06.2010 12:08 19,6 C 20,3 C 8,5 UV-I 5,2 C 56 % 58 % 100 % 1023,4 hPa 0,0 l/m 10,4 km/h (2 Bft) 2 min 4,8 km/h (1 Bft)
03.06.2010 12:10 19,6 C 20,3 C 8,5 UV-I 5,3 C 56 % 56 % 100 % 1023,4 hPa 0,0 l/m 10,0 km/h (2 Bft) 2 min 12,9 km/h (3 Bft)
03.06.2010 12:12 19,6 C 20,5 C 8,5 UV-I 5,2 C 56 % 57 % 100 % 1023,2 hPa 0,0 l/m 8,0 km/h (2 Bft) 2 min 5,8 km/h (2 Bft)
03.06.2010 12:14 19,6 C 20,7 C 8,5 UV-I 5,3 C 56 % 57 % 100 % 1023,2 hPa 0,0 l/m 7,6 km/h (2 Bft) 2 min 5,8 km/h (2 Bft)
03.06.2010 12:16 19,6 C 20,9 C 8,5 UV-I 5,5 C 56 % 57 % 100 % 1023,2 hPa 0,0 l/m 6,8 km/h (2 Bft) 2 min 7,1 km/h (2 Bft)
03.06.2010 12:18 19,7 C 20,9 C 8,5 UV-I 5,6 C 56 % 57 % 100 % 1023,2 hPa 0,0 l/m 7,6 km/h (2 Bft) 2 min 12,9 km/h (3 Bft)
03.06.2010 12:20 19,7 C 20,8 C 8,5 UV-I 5,6 C 56 % 54 % 100 % 1023,2 hPa 0,0 l/m 9,2 km/h (2 Bft) 2 min 17,4 km/h (3 Bft)
03.06.2010 12:22 19,7 C 20,8 C 8,3 UV-I 5,4 C 56 % 55 % 100 % 1023,2 hPa 0,0 l/m 9,6 km/h (2 Bft) 2 min 10,0 km/h (2 Bft)
03.06.2010 12:24 19,7 C 20,7 C 8,3 UV-I 5,5 C 55 % 54 % 100 % 1023,2 hPa 0,0 l/m 10,8 km/h (2 Bft) 2 min 15,4 km/h (3 Bft)
03.06.2010 12:26 19,8 C 20,8 C 8,1 UV-I 5,2 C 55 % 56 % 100 % 1023,2 hPa 0,0 l/m 11,6 km/h (2 Bft) 2 min 5,1 km/h (1 Bft)
03.06.2010 12:28 19,8 C 20,8 C 8,1 UV-I 5,2 C 55 % 55 % 100 % 1023,2 hPa 0,0 l/m 11,2 km/h (2 Bft) 2 min 7,7 km/h (2 Bft)
03.06.2010 12:30 19,8 C 20,8 C 8,1 UV-I 5,3 C 55 % 54 % 100 % 1023,2 hPa 0,0 l/m 11,2 km/h (2 Bft) 2 min 16,7 km/h (3 Bft)
03.06.2010 12:32 19,9 C 20,9 C 8,1 UV-I 5,1 C 55 % 54 % 100 % 1023,1 hPa 0,0 l/m 11,6 km/h (2 Bft) 2 min 15,1 km/h (3 Bft)
03.06.2010 12:34 19,9 C 21,1 C 8,1 UV-I 4,8 C 55 % 55 % 100 % 1023,1 hPa 0,0 l/m 12,0 km/h (2 Bft) 2 min 18,0 km/h (3 Bft)
03.06.2010 12:36 19,9 C 20,9 C 7,7 UV-I 5,1 C 55 % 55 % 100 % 1023,1 hPa 0,0 l/m 11,2 km/h (2 Bft) 2 min 8,7 km/h (2 Bft)
03.06.2010 12:38 20,0 C 21,1 C 7,7 UV-I 5,0 C 55 % 55 % 100 % 1023,1 hPa 0,0 l/m 11,6 km/h (2 Bft) 2 min 16,1 km/h (3 Bft)
03.06.2010 12:40 20,0 C 21,1 C 7,7 UV-I 5,0 C 55 % 53 % 100 % 1023,1 hPa 0,0 l/m 12,8 km/h (3 Bft) 2 min 12,9 km/h (3 Bft)
03.06.2010 12:42 20,0 C 21,1 C 8,1 UV-I 4,9 C 55 % 52 % 100 % 1023,1 hPa 0,0 l/m 12,8 km/h (3 Bft) 2 min 15,4 km/h (3 Bft)
03.06.2010 12:44 20,0 C 21,0 C 8,1 UV-I 4,8 C 55 % 52 % 100 % 1023,1 hPa 0,0 l/m 14,1 km/h (3 Bft) 2 min 17,4 km/h (3 Bft)
03.06.2010 12:46 20,0 C 21,1 C 7,6 UV-I 4,5 C 55 % 53 % 100 % 1023,1 hPa 0,0 l/m 12,4 km/h (3 Bft) 2 min 0,0 km/h (0 Bft)
03.06.2010 12:48 20,1 C 21,1 C 7,6 UV-I 4,6 C 55 % 53 % 100 % 1023,1 hPa 0,0 l/m 12,4 km/h (3 Bft) 2 min 4,5 km/h (1 Bft)
03.06.2010 12:50 20,1 C 21,3 C 7,6 UV-I 4,7 C 55 % 53 % 100 % 1023,1 hPa 0,0 l/m 11,6 km/h (2 Bft) 2 min 13,8 km/h (3 Bft)
03.06.2010 12:52 20,1 C 21,2 C 7,0 UV-I 4,9 C 55 % 53 % 100 % 1023,1 hPa 0,0 l/m 11,2 km/h (2 Bft) 2 min 12,6 km/h (3 Bft)
03.06.2010 12:54 20,2 C 21,3 C 7,0 UV-I 4,8 C 55 % 54 % 100 % 1023,1 hPa 0,0 l/m 10,4 km/h (2 Bft) 2 min 6,8 km/h (2 Bft)
03.06.2010 12:56 20,2 C 21,4 C 7,0 UV-I 4,8 C 55 % 52 % 100 % 1023,1 hPa 0,0 l/m 9,2 km/h (2 Bft) 2 min 8,4 km/h (2 Bft)
03.06.2010 12:58 20,2 C 21,5 C 7,0 UV-I 4,7 C 55 % 53 % 100 % 1023,1 hPa 0,0 l/m 10,0 km/h (2 Bft) 2 min 12,9 km/h (3 Bft)
03.06.2010 13:00 20,2 C 21,6 C 7,0 UV-I 4,8 C 55 % 53 % 100 % 1023,1 hPa 0,0 l/m 10,0 km/h (2 Bft) 2 min 19,6 km/h (3 Bft)
03.06.2010 13:02 20,2 C 21,6 C 7,8 UV-I 4,9 C 55 % 51 % 100 % 1023,1 hPa 0,0 l/m 10,8 km/h (2 Bft) 2 min 22,5 km/h (4 Bft)
03.06.2010 13:04 20,3 C 21,5 C 7,8 UV-I 4,8 C 54 % 51 % 100 % 1023,1 hPa 0,0 l/m 11,6 km/h (2 Bft) 2 min 15,1 km/h (3 Bft)
03.06.2010 13:06 20,3 C 21,5 C 7,8 UV-I 4,6 C 54 % 50 % 100 % 1023,1 hPa 0,0 l/m 13,3 km/h (3 Bft) 2 min 14,8 km/h (3 Bft)
03.06.2010 13:08 20,3 C 21,5 C 7,8 UV-I 4,3 C 54 % 51 % 100 % 1023,1 hPa 0,0 l/m 14,5 km/h (3 Bft) 2 min 13,8 km/h (3 Bft)
03.06.2010 13:10 20,2 C 21,5 C 7,8 UV-I 4,2 C 54 % 52 % 100 % 1023,1 hPa 0,0 l/m 14,5 km/h (3 Bft) 2 min 9,7 km/h (2 Bft)
03.06.2010 13:12 20,2 C 21,5 C 7,8 UV-I 4,2 C 54 % 52 % 100 % 1023,0 hPa 0,0 l/m 14,9 km/h (3 Bft) 2 min 23,8 km/h (4 Bft)
03.06.2010 13:14 20,4 C 21,7 C 7,8 UV-I 4,1 C 54 % 51 % 100 % 1023,0 hPa 0,0 l/m 14,1 km/h (3 Bft) 2 min 18,7 km/h (3 Bft)
03.06.2010 13:16 20,4 C 21,6 C 7,5 UV-I 4,3 C 54 % 51 % 100 % 1023,0 hPa 0,0 l/m 13,3 km/h (3 Bft) 2 min 5,8 km/h (2 Bft)
03.06.2010 13:18 20,4 C 21,6 C 7,5 UV-I 4,3 C 54 % 51 % 100 % 1023,0 hPa 0,0 l/m 12,4 km/h (3 Bft) 2 min 19,0 km/h (3 Bft)
03.06.2010 13:20 20,4 C 21,7 C 7,5 UV-I 4,3 C 54 % 51 % 100 % 1023,0 hPa 0,0 l/m 13,7 km/h (3 Bft) 2 min 19,3 km/h (3 Bft)
03.06.2010 13:22 20,4 C 21,7 C 7,7 UV-I 4,1 C 54 % 51 % 100 % 1023,0 hPa 0,0 l/m 13,7 km/h (3 Bft) 2 min 12,6 km/h (3 Bft)
03.06.2010 13:24 20,5 C 21,8 C 7,7 UV-I 4,0 C 54 % 51 % 100 % 1023,0 hPa 0,0 l/m 12,8 km/h (3 Bft) 2 min 6,8 km/h (2 Bft)
03.06.2010 13:26 20,5 C 21,8 C 7,6 UV-I 4,2 C 54 % 52 % 100 % 1023,0 hPa 0,0 l/m 13,3 km/h (3 Bft) 2 min 21,6 km/h (4 Bft)
03.06.2010 13:28 20,5 C 22,0 C 7,6 UV-I 4,1 C 55 % 51 % 100 % 1023,0 hPa 0,0 l/m 13,3 km/h (3 Bft) 2 min 16,1 km/h (3 Bft)
03.06.2010 13:30 20,5 C 22,1 C 7,6 UV-I 4,1 C 54 % 52 % 100 % 1023,0 hPa 0,0 l/m 12,0 km/h (2 Bft) 2 min 15,1 km/h (3 Bft)
03.06.2010 13:32 20,6 C 22,1 C 7,6 UV-I 4,3 C 54 % 51 % 100 % 1023,2 hPa 0,0 l/m 10,8 km/h (2 Bft) 2 min 7,1 km/h (2 Bft)
03.06.2010 13:34 20,6 C 22,2 C 7,6 UV-I 4,4 C 54 % 50 % 100 % 1023,2 hPa 0,0 l/m 11,6 km/h (2 Bft) 2 min 20,6 km/h (4 Bft)
03.06.2010 13:36 20,6 C 22,1 C 7,6 UV-I 4,4 C 54 % 50 % 100 % 1023,2 hPa 0,0 l/m 11,2 km/h (2 Bft) 2 min 11,3 km/h (2 Bft)
03.06.2010 13:38 20,6 C 22,0 C 7,6 UV-I 4,5 C 54 % 50 % 100 % 1023,2 hPa 0,0 l/m 11,6 km/h (2 Bft) 2 min 11,3 km/h (2 Bft)
03.06.2010 13:40 20,6 C 22,1 C 7,6 UV-I 4,4 C 54 % 51 % 100 % 1023,2 hPa 0,0 l/m 12,0 km/h (2 Bft) 2 min 10,6 km/h (2 Bft)
03.06.2010 13:42 20,7 C 22,3 C 7,7 UV-I 4,2 C 54 % 51 % 100 % 1023,2 hPa 0,0 l/m 13,3 km/h (3 Bft) 2 min 12,6 km/h (3 Bft)
03.06.2010 13:44 20,7 C 22,3 C 7,7 UV-I 4,2 C 54 % 51 % 100 % 1023,2 hPa 0,0 l/m 12,8 km/h (3 Bft) 2 min 28,3 km/h (4 Bft)
03.06.2010 13:46 20,7 C 22,4 C 8,1 UV-I 4,2 C 54 % 49 % 100 % 1023,2 hPa 0,0 l/m 13,3 km/h (3 Bft) 2 min 17,7 km/h (3 Bft)
03.06.2010 13:48 20,8 C 22,5 C 8,1 UV-I 4,0 C 54 % 49 % 100 % 1023,2 hPa 0,0 l/m 15,3 km/h (3 Bft) 2 min 21,6 km/h (4 Bft)
03.06.2010 13:50 20,8 C 22,3 C 8,1 UV-I 4,0 C 54 % 49 % 100 % 1023,2 hPa 0,0 l/m 14,1 km/h (3 Bft) 2 min 36,4 km/h (5 Bft)
03.06.2010 13:52 20,8 C 22,3 C 8,1 UV-I 4,2 C 54 % 49 % 100 % 1023,0 hPa 0,0 l/m 12,4 km/h (3 Bft) 2 min 9,0 km/h (2 Bft)
03.06.2010 13:54 20,8 C 22,4 C 8,1 UV-I 4,3 C 54 % 49 % 100 % 1023,0 hPa 0,0 l/m 12,8 km/h (3 Bft) 2 min 11,6 km/h (2 Bft)
03.06.2010 13:56 20,8 C 22,6 C 8,0 UV-I 4,3 C 54 % 49 % 100 % 1023,0 hPa 0,0 l/m 12,0 km/h (2 Bft) 2 min 20,3 km/h (4 Bft)
03.06.2010 13:58 20,8 C 22,7 C 8,0 UV-I 4,3 C 54 % 49 % 100 % 1023,0 hPa 0,0 l/m 9,6 km/h (2 Bft) 2 min 5,8 km/h (2 Bft)
03.06.2010 14:00 20,9 C 22,8 C 8,0 UV-I 4,4 C 54 % 47 % 100 % 1023,0 hPa 0,0 l/m 9,6 km/h (2 Bft) 2 min 11,6 km/h (2 Bft)
03.06.2010 14:02 20,9 C 22,7 C 8,1 UV-I 4,4 C 54 % 47 % 100 % 1023,0 hPa 0,0 l/m 12,0 km/h (2 Bft) 2 min 11,9 km/h (2 Bft)
03.06.2010 14:04 20,9 C 22,7 C 8,1 UV-I 4,3 C 54 % 48 % 100 % 1023,0 hPa 0,0 l/m 12,0 km/h (2 Bft) 2 min 14,8 km/h (3 Bft)
03.06.2010 14:06 21,0 C 22,6 C 8,2 UV-I 4,4 C 53 % 48 % 100 % 1023,0 hPa 0,0 l/m 13,3 km/h (3 Bft) 2 min 16,1 km/h (3 Bft)
03.06.2010 14:08 21,0 C 22,7 C 8,2 UV-I 4,1 C 53 % 47 % 100 % 1023,0 hPa 0,0 l/m 14,5 km/h (3 Bft) 2 min 14,8 km/h (3 Bft)
03.06.2010 14:10 21,1 C 22,7 C 8,2 UV-I 4,1 C 53 % 46 % 100 % 1023,0 hPa 0,0 l/m 15,7 km/h (3 Bft) 2 min 20,3 km/h (4 Bft)
03.06.2010 14:12 21,1 C 22,7 C 7,9 UV-I 4,0 C 53 % 48 % 100 % 1023,0 hPa 0,0 l/m 13,7 km/h (3 Bft) 2 min 8,4 km/h (2 Bft)
03.06.2010 14:14 21,2 C 22,7 C 7,9 UV-I 4,1 C 53 % 47 % 100 % 1023,0 hPa 0,0 l/m 15,3 km/h (3 Bft) 2 min 20,0 km/h (4 Bft)
03.06.2010 14:16 21,2 C 22,8 C 7,7 UV-I 4,0 C 53 % 48 % 100 % 1023,0 hPa 0,0 l/m 14,5 km/h (3 Bft) 2 min 10,3 km/h (2 Bft)
03.06.2010 14:18 21,2 C 22,9 C 7,7 UV-I 4,0 C 53 % 47 % 100 % 1023,0 hPa 0,0 l/m 12,0 km/h (2 Bft) 2 min 16,1 km/h (3 Bft)
03.06.2010 14:20 21,4 C 23,1 C 7,7 UV-I 3,9 C 53 % 47 % 100 % 1023,0 hPa 0,0 l/m 12,0 km/h (2 Bft) 2 min 19,0 km/h (3 Bft)
03.06.2010 14:22 21,4 C 23,1 C 7,7 UV-I 3,9 C 53 % 47 % 100 % 1023,0 hPa 0,0 l/m 12,8 km/h (3 Bft) 2 min 15,1 km/h (3 Bft)
03.06.2010 14:24 21,5 C 23,1 C 7,7 UV-I 3,9 C 53 % 46 % 100 % 1023,0 hPa 0,0 l/m 12,8 km/h (3 Bft) 2 min 10,3 km/h (2 Bft)
03.06.2010 14:26 21,6 C 23,1 C 8,3 UV-I 3,9 C 52 % 46 % 100 % 1023,0 hPa 0,0 l/m 12,0 km/h (2 Bft) 2 min 10,3 km/h (2 Bft)
03.06.2010 14:28 21,7 C 23,0 C 8,3 UV-I 4,0 C 52 % 48 % 100 % 1023,0 hPa 0,0 l/m 12,4 km/h (3 Bft) 2 min 15,1 km/h (3 Bft)
03.06.2010 14:30 21,7 C 23,1 C 8,3 UV-I 4,0 C 52 % 48 % 100 % 1023,0 hPa 0,0 l/m 12,0 km/h (2 Bft) 2 min 12,2 km/h (2 Bft)
03.06.2010 14:32 21,8 C 23,1 C 7,5 UV-I 4,1 C 52 % 46 % 100 % 1023,2 hPa 0,0 l/m 13,7 km/h (3 Bft) 2 min 27,4 km/h (4 Bft)
03.06.2010 14:34 21,9 C 23,0 C 7,5 UV-I 4,1 C 51 % 46 % 100 % 1023,2 hPa 0,0 l/m 14,1 km/h (3 Bft) 2 min 11,3 km/h (2 Bft)
03.06.2010 14:36 22,0 C 23,2 C 7,9 UV-I 3,8 C 51 % 47 % 100 % 1023,2 hPa 0,0 l/m 12,8 km/h (3 Bft) 2 min 5,1 km/h (1 Bft)
03.06.2010 14:38 22,0 C 23,3 C 7,9 UV-I 3,8 C 51 % 45 % 100 % 1023,2 hPa 0,0 l/m 12,8 km/h (3 Bft) 2 min 5,8 km/h (2 Bft)
03.06.2010 14:40 22,1 C 23,2 C 7,9 UV-I 4,2 C 51 % 45 % 100 % 1023,2 hPa 0,0 l/m 13,7 km/h (3 Bft) 2 min 26,4 km/h (4 Bft)
03.06.2010 14:42 22,1 C 23,3 C 7,9 UV-I 4,0 C 51 % 46 % 100 % 1023,2 hPa 0,0 l/m 13,7 km/h (3 Bft) 2 min 21,6 km/h (4 Bft)
03.06.2010 14:44 22,2 C 23,2 C 7,9 UV-I 3,9 C 50 % 46 % 100 % 1023,2 hPa 0,0 l/m 11,6 km/h (2 Bft) 2 min 10,0 km/h (2 Bft)
03.06.2010 14:46 22,3 C 23,3 C 7,8 UV-I 3,8 C 50 % 46 % 100 % 1023,2 hPa 0,0 l/m 12,4 km/h (3 Bft) 2 min 10,9 km/h (2 Bft)
03.06.2010 14:48 22,2 C 23,2 C 7,8 UV-I 3,9 C 50 % 45 % 100 % 1023,2 hPa 0,0 l/m 13,7 km/h (3 Bft) 2 min 21,6 km/h (4 Bft)
03.06.2010 14:50 22,4 C 23,3 C 7,8 UV-I 3,8 C 50 % 45 % 100 % 1023,2 hPa 0,0 l/m 14,9 km/h (3 Bft) 2 min 19,0 km/h (3 Bft)
03.06.2010 14:52 22,4 C 23,2 C 8,2 UV-I 3,9 C 50 % 46 % 100 % 1024,3 hPa 0,0 l/m 13,7 km/h (3 Bft) 2 min 24,5 km/h (4 Bft)
03.06.2010 14:54 22,4 C 23,2 C 8,2 UV-I 3,9 C 50 % 45 % 100 % 1024,3 hPa 0,0 l/m 14,1 km/h (3 Bft) 2 min 18,3 km/h (3 Bft)
03.06.2010 14:56 22,5 C 23,3 C 8,4 UV-I 3,7 C 50 % 46 % 100 % 1024,3 hPa 0,0 l/m 14,5 km/h (3 Bft) 2 min 15,1 km/h (3 Bft)
03.06.2010 14:58 22,6 C 23,3 C 8,4 UV-I 3,7 C 50 % 45 % 100 % 1024,3 hPa 0,0 l/m 14,9 km/h (3 Bft) 2 min 10,0 km/h (2 Bft)
03.06.2010 15:00 22,7 C 23,3 C 8,4 UV-I 3,7 C 49 % 44 % 100 % 1024,3 hPa 0,0 l/m 14,9 km/h (3 Bft) 2 min 14,8 km/h (3 Bft)
03.06.2010 15:02 22,7 C 23,2 C 8,0 UV-I 3,8 C 49 % 46 % 100 % 1024,3 hPa 0,0 l/m 14,5 km/h (3 Bft) 2 min 5,1 km/h (1 Bft)
03.06.2010 15:04 22,8 C 23,3 C 8,0 UV-I 3,8 C 49 % 45 % 100 % 1024,3 hPa 0,0 l/m 12,4 km/h (3 Bft) 2 min 14,8 km/h (3 Bft)
03.06.2010 15:06 22,8 C 23,3 C 8,0 UV-I 3,9 C 49 % 44 % 100 % 1024,3 hPa 0,0 l/m 13,3 km/h (3 Bft) 2 min 17,1 km/h (3 Bft)
03.06.2010 15:08 22,9 C 23,3 C 8,0 UV-I 3,9 C 49 % 45 % 100 % 1024,3 hPa 0,0 l/m 13,7 km/h (3 Bft) 2 min 9,0 km/h (2 Bft)
03.06.2010 15:10 23,0 C 23,3 C 8,0 UV-I 3,8 C 49 % 44 % 100 % 1024,3 hPa 0,0 l/m 13,7 km/h (3 Bft) 2 min 17,7 km/h (3 Bft)
03.06.2010 15:12 23,0 C 23,5 C 8,0 UV-I 3,6 C 48 % 46 % 100 % 1024,4 hPa 0,0 l/m 12,4 km/h (3 Bft) 2 min 5,1 km/h (1 Bft)
03.06.2010 15:14 23,1 C 23,5 C 8,0 UV-I 3,8 C 48 % 45 % 100 % 1024,4 hPa 0,0 l/m 12,8 km/h (3 Bft) 2 min 8,4 km/h (2 Bft)
03.06.2010 15:16 23,2 C 23,7 C 8,0 UV-I 3,7 C 48 % 45 % 100 % 1024,4 hPa 0,0 l/m 12,4 km/h (3 Bft) 2 min 24,1 km/h (4 Bft)
03.06.2010 15:18 23,2 C 23,6 C 8,0 UV-I 3,9 C 48 % 44 % 100 % 1024,4 hPa 0,0 l/m 11,6 km/h (2 Bft) 2 min 14,5 km/h (3 Bft)
03.06.2010 15:20 23,3 C 23,6 C 8,0 UV-I 3,9 C 48 % 45 % 100 % 1024,4 hPa 0,0 l/m 10,8 km/h (2 Bft) 2 min 6,1 km/h (2 Bft)
03.06.2010 15:22 23,4 C 23,6 C 8,0 UV-I 4,0 C 48 % 45 % 100 % 1024,4 hPa 0,0 l/m 10,8 km/h (2 Bft) 2 min 18,0 km/h (3 Bft)
03.06.2010 15:24 23,4 C 23,7 C 8,0 UV-I 4,0 C 47 % 46 % 100 % 1024,4 hPa 0,0 l/m 10,0 km/h (2 Bft) 2 min 8,0 km/h (2 Bft)
03.06.2010 15:26 23,5 C 23,8 C 8,2 UV-I 4,1 C 47 % 45 % 100 % 1024,4 hPa 0,0 l/m 10,0 km/h (2 Bft) 2 min 10,9 km/h (2 Bft)
03.06.2010 15:28 23,6 C 23,9 C 8,2 UV-I 4,1 C 47 % 44 % 100 % 1024,4 hPa 0,0 l/m 10,0 km/h (2 Bft) 2 min 10,6 km/h (2 Bft)
03.06.2010 15:30 23,6 C 23,9 C 8,2 UV-I 4,2 C 47 % 44 % 100 % 1024,4 hPa 0,0 l/m 9,6 km/h (2 Bft) 2 min 5,1 km/h (1 Bft)
03.06.2010 15:32 23,6 C 23,9 C 8,5 UV-I 4,1 C 47 % 44 % 100 % 1024,9 hPa 0,0 l/m 10,4 km/h (2 Bft) 2 min 15,4 km/h (3 Bft)
03.06.2010 15:34 23,7 C 23,7 C 8,5 UV-I 4,1 C 47 % 43 % 100 % 1024,9 hPa 0,0 l/m 13,3 km/h (3 Bft) 2 min 18,7 km/h (3 Bft)
03.06.2010 15:36 23,8 C 23,7 C 8,7 UV-I 4,0 C 47 % 45 % 100 % 1024,9 hPa 0,0 l/m 14,5 km/h (3 Bft) 2 min 16,7 km/h (3 Bft)
03.06.2010 15:38 23,8 C 23,7 C 8,7 UV-I 3,9 C 46 % 44 % 100 % 1024,9 hPa 0,0 l/m 14,9 km/h (3 Bft) 2 min 6,8 km/h (2 Bft)
03.06.2010 15:40 23,9 C 23,9 C 8,7 UV-I 3,6 C 46 % 42 % 100 % 1024,9 hPa 0,0 l/m 15,3 km/h (3 Bft) 2 min 11,6 km/h (2 Bft)
03.06.2010 15:42 24,0 C 23,7 C 9,1 UV-I 3,8 C 46 % 43 % 100 % 1024,9 hPa 0,0 l/m 14,5 km/h (3 Bft) 2 min 11,9 km/h (2 Bft)
03.06.2010 15:44 24,0 C 23,6 C 9,1 UV-I 3,9 C 46 % 44 % 100 % 1024,9 hPa 0,0 l/m 12,8 km/h (3 Bft) 2 min 4,8 km/h (1 Bft)
03.06.2010 15:46 24,1 C 23,9 C 9,2 UV-I 3,8 C 46 % 44 % 100 % 1024,9 hPa 0,0 l/m 10,4 km/h (2 Bft) 2 min 4,5 km/h (1 Bft)
03.06.2010 15:48 24,2 C 23,9 C 9,2 UV-I 4,0 C 46 % 43 % 100 % 1024,9 hPa 0,0 l/m 9,6 km/h (2 Bft) 2 min 14,2 km/h (3 Bft)
03.06.2010 15:50 24,2 C 23,9 C 9,2 UV-I 4,2 C 46 % 42 % 100 % 1024,9 hPa 0,0 l/m 9,6 km/h (2 Bft) 2 min 11,9 km/h (2 Bft)
03.06.2010 15:52 24,3 C 23,9 C 9,2 UV-I 4,0 C 45 % 41 % 100 % 1026,1 hPa 0,0 l/m 10,4 km/h (2 Bft) 2 min 23,2 km/h (4 Bft)
03.06.2010 15:54 24,2 C 23,6 C 9,2 UV-I 4,1 C 45 % 41 % 100 % 1026,1 hPa 0,0 l/m 12,8 km/h (3 Bft) 2 min 20,9 km/h (4 Bft)
03.06.2010 15:56 24,4 C 23,6 C 9,3 UV-I 3,8 C 45 % 41 % 100 % 1026,1 hPa 0,0 l/m 14,5 km/h (3 Bft) 2 min 21,6 km/h (4 Bft)
03.06.2010 15:58 24,4 C 23,6 C 9,3 UV-I 3,7 C 45 % 40 % 100 % 1026,1 hPa 0,0 l/m 16,9 km/h (3 Bft) 2 min 15,8 km/h (3 Bft)
03.06.2010 16:00 24,5 C 23,5 C 9,3 UV-I 3,6 C 45 % 41 % 100 % 1026,1 hPa 0,0 l/m 16,5 km/h (3 Bft) 2 min 8,7 km/h (2 Bft)
03.06.2010 16:02 24,6 C 23,5 C 9,1 UV-I 3,6 C 45 % 42 % 100 % 1026,1 hPa 0,0 l/m 16,9 km/h (3 Bft) 2 min 9,7 km/h (2 Bft)
03.06.2010 16:04 24,6 C 23,7 C 9,1 UV-I 3,4 C 45 % 43 % 97 % 1026,1 hPa 0,0 l/m 14,9 km/h (3 Bft) 2 min 13,5 km/h (3 Bft)
03.06.2010 16:06 24,6 C 23,7 C 9,4 UV-I 3,4 C 45 % 43 % 97 % 1026,1 hPa 0,0 l/m 14,9 km/h (3 Bft) 2 min 8,0 km/h (2 Bft)
03.06.2010 16:08 24,7 C 23,9 C 9,4 UV-I 3,5 C 44 % 41 % 100 % 1026,1 hPa 0,0 l/m 13,3 km/h (3 Bft) 2 min 10,9 km/h (2 Bft)
03.06.2010 16:10 24,7 C 23,9 C 9,4 UV-I 3,8 C 44 % 41 % 100 % 1026,1 hPa 0,0 l/m 11,6 km/h (2 Bft) 2 min 10,0 km/h (2 Bft)
03.06.2010 16:12 24,7 C 23,9 C 9,4 UV-I 3,9 C 44 % 41 % 100 % 1026,1 hPa 0,0 l/m 11,2 km/h (2 Bft) 2 min 13,2 km/h (3 Bft)
03.06.2010 16:14 24,8 C 23,9 C 9,4 UV-I 3,9 C 44 % 41 % 100 % 1026,1 hPa 0,0 l/m 10,0 km/h (2 Bft) 2 min 14,8 km/h (3 Bft)
03.06.2010 16:16 24,8 C 23,9 C 9,6 UV-I 3,9 C 44 % 40 % 100 % 1026,1 hPa 0,0 l/m 10,8 km/h (2 Bft) 2 min 12,9 km/h (3 Bft)
03.06.2010 16:18 24,8 C 23,8 C 9,6 UV-I 3,9 C 44 % 40 % 100 % 1026,1 hPa 0,0 l/m 12,4 km/h (3 Bft) 2 min 13,8 km/h (3 Bft)
03.06.2010 16:20 24,9 C 23,8 C 9,6 UV-I 3,8 C 44 % 40 % 100 % 1026,1 hPa 0,0 l/m 12,8 km/h (3 Bft) 2 min 38,6 km/h (5 Bft)
03.06.2010 16:22 24,9 C 23,9 C 9,8 UV-I 3,8 C 44 % 40 % 100 % 1026,1 hPa 0,0 l/m 12,8 km/h (3 Bft) 2 min 11,6 km/h (2 Bft)
03.06.2010 16:24 25,0 C 24,0 C 9,8 UV-I 3,6 C 44 % 40 % 100 % 1026,1 hPa 0,0 l/m 12,8 km/h (3 Bft) 2 min 9,7 km/h (2 Bft)
03.06.2010 16:26 25,0 C 24,0 C 9,5 UV-I 3,8 C 44 % 40 % 100 % 1026,1 hPa 0,0 l/m 12,4 km/h (3 Bft) 2 min 9,7 km/h (2 Bft)
03.06.2010 16:28 25,0 C 24,1 C 9,5 UV-I 3,7 C 43 % 41 % 100 % 1026,1 hPa 0,0 l/m 11,6 km/h (2 Bft) 2 min 23,8 km/h (4 Bft)
03.06.2010 16:30 25,1 C 24,0 C 9,5 UV-I 3,8 C 43 % 39 % 100 % 1026,1 hPa 0,0 l/m 11,6 km/h (2 Bft) 2 min 6,8 km/h (2 Bft)
03.06.2010 16:32 25,1 C 24,0 C 10,5 UV-I 3,9 C 43 % 39 % 100 % 1024,6 hPa 0,0 l/m 12,0 km/h (2 Bft) 2 min 15,8 km/h (3 Bft)
03.06.2010 16:34 25,1 C 24,0 C 10,5 UV-I 3,9 C 43 % 40 % 100 % 1024,6 hPa 0,0 l/m 12,0 km/h (2 Bft) 2 min 24,5 km/h (4 Bft)
03.06.2010 16:36 25,2 C 24,0 C 10,9 UV-I 3,9 C 43 % 40 % 100 % 1024,6 hPa 0,0 l/m 11,6 km/h (2 Bft) 2 min 15,8 km/h (3 Bft)
03.06.2010 16:38 25,2 C 24,0 C 10,9 UV-I 4,1 C 43 % 38 % 100 % 1024,6 hPa 0,0 l/m 12,4 km/h (3 Bft) 2 min 23,8 km/h (4 Bft)
03.06.2010 16:40 25,2 C 24,0 C 10,9 UV-I 3,9 C 43 % 39 % 100 % 1024,6 hPa 0,0 l/m 13,7 km/h (3 Bft) 2 min 10,6 km/h (2 Bft)
03.06.2010 16:42 25,2 C 23,9 C 11,1 UV-I 3,8 C 43 % 39 % 100 % 1024,6 hPa 0,0 l/m 14,1 km/h (3 Bft) 2 min 19,3 km/h (3 Bft)
03.06.2010 16:44 25,2 C 24,0 C 11,1 UV-I 3,7 C 43 % 40 % 100 % 1024,6 hPa 0,0 l/m 13,3 km/h (3 Bft) 2 min 9,7 km/h (2 Bft)
03.06.2010 16:46 25,3 C 24,1 C 11,8 UV-I 3,7 C 43 % 40 % 100 % 1024,6 hPa 0,0 l/m 12,4 km/h (3 Bft) 2 min 17,7 km/h (3 Bft)
03.06.2010 16:48 25,2 C 24,1 C 11,8 UV-I 3,8 C 43 % 39 % 100 % 1024,6 hPa 0,0 l/m 13,7 km/h (3 Bft) 2 min 9,0 km/h (2 Bft)
03.06.2010 16:50 25,2 C 24,0 C 11,8 UV-I 3,8 C 42 % 39 % 100 % 1024,6 hPa 0,0 l/m 12,0 km/h (2 Bft) 2 min 13,8 km/h (3 Bft)
03.06.2010 16:52 25,2 C 24,0 C 12,4 UV-I 3,8 C 43 % 40 % 100 % 1026,2 hPa 0,0 l/m 10,8 km/h (2 Bft) 2 min 7,1 km/h (2 Bft)
03.06.2010 16:54 25,4 C 24,1 C 12,4 UV-I 3,9 C 42 % 39 % 100 % 1026,2 hPa 0,0 l/m 10,4 km/h (2 Bft) 2 min 9,0 km/h (2 Bft)
03.06.2010 16:56 25,4 C 24,3 C 12,4 UV-I 3,8 C 42 % 39 % 100 % 1026,2 hPa 0,0 l/m 11,6 km/h (2 Bft) 2 min 14,8 km/h (3 Bft)
03.06.2010 16:58 25,4 C 24,1 C 12,4 UV-I 4,0 C 42 % 38 % 100 % 1026,2 hPa 0,0 l/m 12,0 km/h (2 Bft) 2 min 17,4 km/h (3 Bft)
03.06.2010 17:00 25,4 C 24,0 C 12,4 UV-I 3,9 C 42 % 39 % 100 % 1026,2 hPa 0,0 l/m 12,0 km/h (2 Bft) 2 min 10,6 km/h (2 Bft)
03.06.2010 17:02 25,4 C 24,1 C 12,3 UV-I 3,6 C 42 % 39 % 100 % 1026,2 hPa 0,0 l/m 13,7 km/h (3 Bft) 2 min 17,1 km/h (3 Bft)
03.06.2010 17:04 25,4 C 24,1 C 12,3 UV-I 3,6 C 42 % 40 % 100 % 1026,2 hPa 0,0 l/m 13,3 km/h (3 Bft) 2 min 5,1 km/h (1 Bft)
03.06.2010 17:06 25,4 C 24,3 C 11,8 UV-I 3,5 C 42 % 38 % 100 % 1026,2 hPa 0,0 l/m 13,7 km/h (3 Bft) 2 min 10,3 km/h (2 Bft)
03.06.2010 17:08 25,5 C 24,3 C 11,8 UV-I 3,6 C 42 % 39 % 100 % 1026,2 hPa 0,0 l/m 12,8 km/h (3 Bft) 2 min 9,7 km/h (2 Bft)
03.06.2010 17:10 25,5 C 24,3 C 11,8 UV-I 3,7 C 42 % 39 % 100 % 1026,2 hPa 0,0 l/m 11,6 km/h (2 Bft) 2 min 9,7 km/h (2 Bft)
03.06.2010 17:12 25,5 C 24,4 C 12,2 UV-I 3,7 C 42 % 39 % 100 % 1025,2 hPa 0,0 l/m 10,4 km/h (2 Bft) 2 min 3,5 km/h (1 Bft)
03.06.2010 17:14 25,5 C 24,4 C 12,2 UV-I 3,9 C 42 % 39 % 100 % 1025,2 hPa 0,0 l/m 10,4 km/h (2 Bft) 2 min 17,1 km/h (3 Bft)
03.06.2010 17:16 25,5 C 24,3 C 12,4 UV-I 3,9 C 42 % 39 % 100 % 1025,2 hPa 0,0 l/m 11,2 km/h (2 Bft) 2 min 13,5 km/h (3 Bft)
03.06.2010 17:18 25,5 C 24,3 C 12,4 UV-I 3,8 C 42 % 38 % 100 % 1025,2 hPa 0,0 l/m 11,6 km/h (2 Bft) 2 min 11,9 km/h (2 Bft)
03.06.2010 17:20 25,5 C 24,3 C 12,4 UV-I 3,8 C 42 % 39 % 100 % 1025,2 hPa 0,0 l/m 11,2 km/h (2 Bft) 2 min 10,3 km/h (2 Bft)
03.06.2010 17:22 25,5 C 24,2 C 6,6 UV-I 3,9 C 42 % 39 % 100 % 1025,2 hPa 0,0 l/m 11,6 km/h (2 Bft) 2 min 14,5 km/h (3 Bft)
03.06.2010 17:24 25,6 C 24,3 C 6,6 UV-I 3,8 C 42 % 40 % 100 % 1025,2 hPa 0,0 l/m 12,0 km/h (2 Bft) 2 min 20,3 km/h (4 Bft)
03.06.2010 17:26 25,5 C 24,2 C 11,3 UV-I 3,8 C 42 % 38 % 100 % 1025,2 hPa 0,0 l/m 12,4 km/h (3 Bft) 2 min 19,3 km/h (3 Bft)
03.06.2010 17:28 25,5 C 24,1 C 11,3 UV-I 3,7 C 42 % 39 % 100 % 1025,2 hPa 0,0 l/m 13,3 km/h (3 Bft) 2 min 14,8 km/h (3 Bft)
03.06.2010 17:30 25,5 C 24,1 C 11,3 UV-I 3,5 C 42 % 39 % 100 % 1025,2 hPa 0,0 l/m 13,3 km/h (3 Bft) 2 min 13,2 km/h (3 Bft)
03.06.2010 17:32 25,5 C 24,1 C 11,4 UV-I 3,5 C 42 % 39 % 100 % 1023,9 hPa 0,0 l/m 14,1 km/h (3 Bft) 2 min 15,4 km/h (3 Bft)
03.06.2010 17:34 25,5 C 24,1 C 11,4 UV-I 3,4 C 42 % 38 % 97 % 1023,9 hPa 0,0 l/m 14,1 km/h (3 Bft) 2 min 18,3 km/h (3 Bft)
03.06.2010 17:36 25,6 C 24,1 C 10,2 UV-I 3,4 C 42 % 39 % 97 % 1023,9 hPa 0,0 l/m 13,7 km/h (3 Bft) 2 min 12,2 km/h (2 Bft)
03.06.2010 17:38 25,5 C 23,9 C 10,2 UV-I 3,5 C 42 % 38 % 100 % 1023,9 hPa 0,0 l/m 12,0 km/h (2 Bft) 2 min 8,7 km/h (2 Bft)
03.06.2010 17:40 25,5 C 23,9 C 10,2 UV-I 3,6 C 42 % 39 % 100 % 1023,9 hPa 0,0 l/m 11,6 km/h (2 Bft) 2 min 7,7 km/h (2 Bft)
03.06.2010 17:42 25,5 C 24,1 C 10,7 UV-I 3,5 C 42 % 39 % 100 % 1023,9 hPa 0,0 l/m 12,0 km/h (2 Bft) 2 min 18,0 km/h (3 Bft)
03.06.2010 17:44 25,5 C 24,0 C 10,7 UV-I 3,6 C 42 % 39 % 100 % 1023,9 hPa 0,0 l/m 11,6 km/h (2 Bft) 2 min 10,0 km/h (2 Bft)
03.06.2010 17:46 25,5 C 24,1 C 9,9 UV-I 3,6 C 42 % 40 % 100 % 1023,9 hPa 0,0 l/m 10,4 km/h (2 Bft) 2 min 9,0 km/h (2 Bft)
03.06.2010 17:50 25,5 C 23,9 C 9,9 UV-I 3,9 C 42 % 38 % 100 % 1023,9 hPa 0,0 l/m 12,4 km/h (3 Bft) 2 min 18,7 km/h (3 Bft)
03.06.2010 17:52 25,5 C 23,9 C 6,0 UV-I 3,7 C 42 % 38 % 100 % 1023,8 hPa 0,0 l/m 12,0 km/h (2 Bft) 2 min 11,9 km/h (2 Bft)
03.06.2010 17:54 25,4 C 23,8 C 6,0 UV-I 3,8 C 42 % 39 % 100 % 1023,8 hPa 0,0 l/m 10,8 km/h (2 Bft) 2 min 8,7 km/h (2 Bft)
03.06.2010 17:56 25,4 C 23,7 C 5,2 UV-I 3,9 C 42 % 38 % 100 % 1023,8 hPa 0,0 l/m 11,2 km/h (2 Bft) 2 min 13,8 km/h (3 Bft)
03.06.2010 17:58 25,5 C 23,7 C 5,2 UV-I 3,9 C 42 % 39 % 100 % 1023,8 hPa 0,0 l/m 11,2 km/h (2 Bft) 2 min 12,6 km/h (3 Bft)
03.06.2010 18:00 25,4 C 23,6 C 5,2 UV-I 4,0 C 42 % 38 % 100 % 1023,8 hPa 0,0 l/m 12,0 km/h (2 Bft) 2 min 20,3 km/h (4 Bft)
03.06.2010 18:02 25,4 C 23,5 C 6,0 UV-I 4,0 C 42 % 38 % 100 % 1023,8 hPa 0,0 l/m 12,8 km/h (3 Bft) 2 min 24,1 km/h (4 Bft)
03.06.2010 18:04 25,4 C 23,5 C 6,0 UV-I 3,8 C 42 % 39 % 100 % 1023,8 hPa 0,0 l/m 14,1 km/h (3 Bft) 2 min 16,7 km/h (3 Bft)
03.06.2010 18:06 25,4 C 23,4 C 7,9 UV-I 3,7 C 42 % 38 % 100 % 1023,8 hPa 0,0 l/m 14,9 km/h (3 Bft) 2 min 35,4 km/h (5 Bft)
03.06.2010 18:08 25,2 C 23,4 C 7,9 UV-I 3,6 C 42 % 39 % 100 % 1023,8 hPa 0,0 l/m 14,9 km/h (3 Bft) 2 min 4,2 km/h (1 Bft)
03.06.2010 18:10 25,2 C 23,4 C 7,9 UV-I 3,6 C 42 % 39 % 100 % 1023,8 hPa 0,0 l/m 15,3 km/h (3 Bft) 2 min 18,0 km/h (3 Bft)
03.06.2010 18:12 25,2 C 23,4 C 3,2 UV-I 3,5 C 42 % 39 % 100 % 1023,8 hPa 0,0 l/m 14,9 km/h (3 Bft) 2 min 19,0 km/h (3 Bft)
03.06.2010 18:14 25,2 C 23,5 C 3,2 UV-I 3,4 C 42 % 39 % 97 % 1023,8 hPa 0,0 l/m 14,1 km/h (3 Bft) 2 min 11,3 km/h (2 Bft)
03.06.2010 18:16 25,1 C 23,5 C 4,2 UV-I 3,3 C 42 % 39 % 94 % 1023,8 hPa 0,0 l/m 14,5 km/h (3 Bft) 2 min 16,1 km/h (3 Bft)
03.06.2010 18:18 25,1 C 23,3 C 4,2 UV-I 3,2 C 42 % 39 % 91 % 1023,8 hPa 0,0 l/m 13,3 km/h (3 Bft) 2 min 11,6 km/h (2 Bft)
03.06.2010 18:20 25,0 C 23,3 C 4,2 UV-I 2,7 C 42 % 39 % 77 % 1023,8 hPa 0,0 l/m 14,1 km/h (3 Bft) 0 min 11,3 km/h (2 Bft)
03.06.2010 18:22 25,0 C 23,3 C 3,1 UV-I 2,5 C 42 % 39 % 71 % 1023,8 hPa 0,0 l/m 12,0 km/h (2 Bft) 0 min 4,5 km/h (1 Bft)
03.06.2010 18:24 24,9 C 23,3 C 3,1 UV-I 2,3 C 42 % 40 % 66 % 1023,8 hPa 0,0 l/m 10,8 km/h (2 Bft) 0 min 8,0 km/h (2 Bft)
03.06.2010 18:26 24,9 C 23,2 C 3,5 UV-I 2,2 C 42 % 40 % 63 % 1023,8 hPa 0,0 l/m 10,8 km/h (2 Bft) 0 min 9,7 km/h (2 Bft)
03.06.2010 18:28 24,8 C 23,3 C 3,5 UV-I 1,8 C 42 % 41 % 51 % 1023,8 hPa 0,0 l/m 9,2 km/h (2 Bft) 0 min 12,2 km/h (2 Bft)
03.06.2010 18:30 24,8 C 23,3 C 3,5 UV-I 1,5 C 42 % 39 % 43 % 1023,8 hPa 0,0 l/m 10,8 km/h (2 Bft) 0 min 14,2 km/h (3 Bft)
03.06.2010 18:32 24,7 C 23,2 C 3,3 UV-I 1,2 C 42 % 39 % 34 % 1022,9 hPa 0,0 l/m 11,6 km/h (2 Bft) 0 min 12,9 km/h (3 Bft)
03.06.2010 18:34 24,7 C 23,2 C 3,3 UV-I 1,0 C 42 % 39 % 29 % 1022,9 hPa 0,0 l/m 12,8 km/h (3 Bft) 0 min 17,1 km/h (3 Bft)
03.06.2010 18:36 24,6 C 23,3 C 2,9 UV-I 0,6 C 42 % 39 % 17 % 1022,9 hPa 0,0 l/m 14,5 km/h (3 Bft) 0 min 17,4 km/h (3 Bft)
03.06.2010 18:38 24,6 C 23,3 C 2,9 UV-I 0,4 C 42 % 40 % 11 % 1022,9 hPa 0,0 l/m 14,9 km/h (3 Bft) 0 min 4,8 km/h (1 Bft)
03.06.2010 18:40 24,5 C 23,2 C 2,9 UV-I 0,4 C 42 % 39 % 11 % 1022,9 hPa 0,0 l/m 14,1 km/h (3 Bft) 0 min 9,3 km/h (2 Bft)
03.06.2010 18:42 24,5 C 23,3 C 2,5 UV-I 0,2 C 43 % 40 % 6 % 1022,9 hPa 0,0 l/m 11,6 km/h (2 Bft) 0 min 3,5 km/h (1 Bft)
03.06.2010 18:44 24,4 C 23,3 C 2,5 UV-I 0,2 C 43 % 39 % 6 % 1022,9 hPa 0,0 l/m 11,2 km/h (2 Bft) 0 min 8,4 km/h (2 Bft)
03.06.2010 18:46 24,4 C 23,3 C 2,5 UV-I 0,3 C 43 % 39 % 9 % 1022,9 hPa 0,0 l/m 11,2 km/h (2 Bft) 0 min 9,7 km/h (2 Bft)
03.06.2010 18:48 24,4 C 23,2 C 2,5 UV-I 0,4 C 43 % 40 % 11 % 1022,9 hPa 0,0 l/m 10,0 km/h (2 Bft) 0 min 11,6 km/h (2 Bft)
03.06.2010 18:50 24,3 C 23,2 C 2,5 UV-I 0,6 C 43 % 40 % 17 % 1022,9 hPa 0,0 l/m 9,6 km/h (2 Bft) 0 min 6,8 km/h (2 Bft)
03.06.2010 18:52 24,3 C 23,3 C 2,5 UV-I 0,4 C 43 % 40 % 11 % 1022,2 hPa 0,0 l/m 10,4 km/h (2 Bft) 0 min 9,3 km/h (2 Bft)
03.06.2010 18:54 24,2 C 23,3 C 2,5 UV-I 0,3 C 43 % 40 % 9 % 1022,2 hPa 0,0 l/m 12,0 km/h (2 Bft) 0 min 16,7 km/h (3 Bft)
03.06.2010 18:56 24,2 C 23,2 C 2,7 UV-I 0,2 C 43 % 41 % 6 % 1022,2 hPa 0,0 l/m 11,6 km/h (2 Bft) 0 min 13,2 km/h (3 Bft)
03.06.2010 18:58 24,1 C 23,2 C 2,7 UV-I 0,1 C 43 % 40 % 3 % 1022,2 hPa 0,0 l/m 12,0 km/h (2 Bft) 0 min 16,4 km/h (3 Bft)
03.06.2010 19:00 24,1 C 23,2 C 2,7 UV-I 0,0 C 43 % 41 % 0 % 1022,2 hPa 0,0 l/m 12,4 km/h (3 Bft) 0 min 6,1 km/h (2 Bft)
03.06.2010 19:02 24,1 C 23,3 C 2,8 UV-I 0,0 C 43 % 40 % 0 % 1022,2 hPa 0,0 l/m 12,4 km/h (3 Bft) 0 min 14,2 km/h (3 Bft)
03.06.2010 19:04 24,0 C 23,2 C 2,8 UV-I 0,0 C 43 % 40 % 0 % 1022,2 hPa 0,0 l/m 12,0 km/h (2 Bft) 0 min 13,5 km/h (3 Bft)
03.06.2010 19:06 24,0 C 23,2 C 2,5 UV-I 0,0 C 43 % 41 % 0 % 1022,2 hPa 0,0 l/m 11,2 km/h (2 Bft) 0 min 16,4 km/h (3 Bft)
03.06.2010 19:08 24,0 C 23,1 C 2,5 UV-I 0,0 C 44 % 41 % 0 % 1022,2 hPa 0,0 l/m 10,8 km/h (2 Bft) 0 min 7,7 km/h (2 Bft)
03.06.2010 19:10 23,9 C 23,1 C 2,5 UV-I 0,0 C 43 % 41 % 0 % 1022,2 hPa 0,0 l/m 10,4 km/h (2 Bft) 0 min 7,1 km/h (2 Bft)
03.06.2010 19:12 23,9 C 23,1 C 2,2 UV-I 0,0 C 44 % 42 % 0 % 1021,3 hPa 0,0 l/m 9,2 km/h (2 Bft) 0 min 4,2 km/h (1 Bft)
03.06.2010 19:14 23,8 C 23,1 C 2,2 UV-I 0,0 C 44 % 41 % 0 % 1021,3 hPa 0,0 l/m 9,2 km/h (2 Bft) 0 min 10,3 km/h (2 Bft)
03.06.2010 19:16 23,8 C 23,0 C 2,1 UV-I 0,0 C 44 % 41 % 0 % 1021,3 hPa 0,0 l/m 10,4 km/h (2 Bft) 0 min 22,5 km/h (4 Bft)
03.06.2010 19:18 23,8 C 23,1 C 2,1 UV-I 0,0 C 44 % 41 % 0 % 1021,3 hPa 0,0 l/m 10,4 km/h (2 Bft) 0 min 12,9 km/h (3 Bft)
03.06.2010 19:20 23,8 C 23,0 C 2,1 UV-I 0,0 C 44 % 41 % 0 % 1021,3 hPa 0,0 l/m 10,0 km/h (2 Bft) 0 min 5,8 km/h (2 Bft)
03.06.2010 19:22 23,7 C 22,9 C 2,1 UV-I 0,0 C 44 % 42 % 0 % 1021,3 hPa 0,0 l/m 10,8 km/h (2 Bft) 0 min 3,9 km/h (1 Bft)
03.06.2010 19:24 23,7 C 23,0 C 2,1 UV-I 0,0 C 44 % 42 % 0 % 1021,3 hPa 0,0 l/m 10,8 km/h (2 Bft) 0 min 7,1 km/h (2 Bft)
03.06.2010 19:26 23,7 C 22,9 C 2,4 UV-I 0,0 C 44 % 42 % 0 % 1021,3 hPa 0,0 l/m 10,8 km/h (2 Bft) 0 min 6,4 km/h (2 Bft)
03.06.2010 19:28 23,7 C 22,9 C 2,4 UV-I 0,0 C 44 % 42 % 0 % 1021,3 hPa 0,0 l/m 10,8 km/h (2 Bft) 0 min 19,6 km/h (3 Bft)
03.06.2010 19:30 23,6 C 22,8 C 2,4 UV-I 0,0 C 44 % 41 % 0 % 1021,3 hPa 0,0 l/m 11,2 km/h (2 Bft) 0 min 17,4 km/h (3 Bft)
03.06.2010 19:32 23,6 C 22,8 C 2,0 UV-I 0,0 C 44 % 42 % 0 % 1021,9 hPa 0,0 l/m 11,6 km/h (2 Bft) 0 min 9,7 km/h (2 Bft)
03.06.2010 19:34 23,6 C 22,9 C 2,0 UV-I 0,0 C 45 % 42 % 0 % 1021,9 hPa 0,0 l/m 12,0 km/h (2 Bft) 0 min 7,7 km/h (2 Bft)
03.06.2010 19:36 23,6 C 22,8 C 1,9 UV-I 0,0 C 45 % 42 % 0 % 1021,9 hPa 0,0 l/m 13,3 km/h (3 Bft) 0 min 11,9 km/h (2 Bft)
03.06.2010 19:38 23,6 C 22,9 C 1,9 UV-I 0,0 C 45 % 43 % 0 % 1021,9 hPa 0,0 l/m 12,0 km/h (2 Bft) 0 min 9,3 km/h (2 Bft)
03.06.2010 19:40 23,5 C 22,9 C 1,9 UV-I 0,0 C 45 % 42 % 0 % 1021,9 hPa 0,0 l/m 11,2 km/h (2 Bft) 0 min 17,1 km/h (3 Bft)
03.06.2010 19:42 23,5 C 22,8 C 1,8 UV-I 0,0 C 45 % 42 % 0 % 1021,9 hPa 0,0 l/m 12,4 km/h (3 Bft) 0 min 11,3 km/h (2 Bft)
03.06.2010 19:44 23,5 C 22,8 C 1,8 UV-I 0,0 C 45 % 41 % 0 % 1021,9 hPa 0,0 l/m 12,4 km/h (3 Bft) 0 min 6,8 km/h (2 Bft)
03.06.2010 19:46 23,5 C 22,7 C 1,7 UV-I 0,0 C 45 % 42 % 0 % 1021,9 hPa 0,0 l/m 11,6 km/h (2 Bft) 0 min 11,3 km/h (2 Bft)
03.06.2010 19:48 23,4 C 22,6 C 1,7 UV-I 0,0 C 45 % 42 % 0 % 1021,9 hPa 0,0 l/m 11,2 km/h (2 Bft) 0 min 4,2 km/h (1 Bft)
03.06.2010 19:50 23,4 C 22,6 C 1,7 UV-I 0,0 C 45 % 43 % 0 % 1021,9 hPa 0,0 l/m 10,4 km/h (2 Bft) 0 min 3,5 km/h (1 Bft)
03.06.2010 19:52 23,4 C 22,7 C 1,6 UV-I 0,0 C 45 % 43 % 0 % 1021,4 hPa 0,0 l/m 9,6 km/h (2 Bft) 0 min 9,3 km/h (2 Bft)
03.06.2010 19:54 23,4 C 22,7 C 1,6 UV-I 0,0 C 45 % 43 % 0 % 1021,4 hPa 0,0 l/m 8,4 km/h (2 Bft) 0 min 12,2 km/h (2 Bft)
03.06.2010 19:58 23,2 C 22,5 C 1,5 UV-I 0,0 C 45 % 43 % 0 % 1021,4 hPa 0,0 l/m 8,0 km/h (2 Bft) 0 min 11,3 km/h (2 Bft)
03.06.2010 20:00 23,2 C 22,5 C 1,5 UV-I 0,0 C 45 % 44 % 0 % 1021,4 hPa 0,0 l/m 8,4 km/h (2 Bft) 0 min 9,7 km/h (2 Bft)
03.06.2010 20:02 23,3 C 22,5 C 1,2 UV-I 0,0 C 45 % 44 % 0 % 1021,4 hPa 0,0 l/m 9,2 km/h (2 Bft) 0 min 9,3 km/h (2 Bft)
03.06.2010 20:04 23,3 C 22,4 C 1,2 UV-I 0,0 C 45 % 43 % 0 % 1021,4 hPa 0,0 l/m 9,6 km/h (2 Bft) 0 min 10,0 km/h (2 Bft)
03.06.2010 20:06 23,3 C 22,4 C 1,0 UV-I 0,0 C 45 % 44 % 0 % 1021,4 hPa 0,0 l/m 8,4 km/h (2 Bft) 0 min 4,5 km/h (1 Bft)
03.06.2010 20:08 23,3 C 22,4 C 1,0 UV-I 0,0 C 45 % 44 % 0 % 1021,4 hPa 0,0 l/m 8,4 km/h (2 Bft) 0 min 8,4 km/h (2 Bft)
03.06.2010 20:10 23,2 C 22,4 C 1,0 UV-I 0,0 C 46 % 44 % 0 % 1021,4 hPa 0,0 l/m 9,2 km/h (2 Bft) 0 min 9,0 km/h (2 Bft)
03.06.2010 20:12 23,2 C 22,4 C 0,7 UV-I 0,0 C 46 % 44 % 0 % 1021,4 hPa 0,0 l/m 10,0 km/h (2 Bft) 0 min 14,2 km/h (3 Bft)
03.06.2010 20:14 23,2 C 22,4 C 0,7 UV-I 0,0 C 46 % 44 % 0 % 1021,4 hPa 0,0 l/m 10,4 km/h (2 Bft) 0 min 12,2 km/h (2 Bft)
03.06.2010 20:16 23,2 C 22,3 C 0,1 UV-I 0,0 C 46 % 44 % 0 % 1021,4 hPa 0,0 l/m 10,8 km/h (2 Bft) 0 min 9,7 km/h (2 Bft)
03.06.2010 20:18 23,2 C 22,3 C 0,1 UV-I 0,0 C 46 % 44 % 0 % 1021,4 hPa 0,0 l/m 11,2 km/h (2 Bft) 0 min 9,3 km/h (2 Bft)
03.06.2010 20:20 23,2 C 22,3 C 0,1 UV-I 0,0 C 46 % 45 % 0 % 1021,4 hPa 0,0 l/m 10,8 km/h (2 Bft) 0 min 10,3 km/h (2 Bft)
03.06.2010 20:22 23,2 C 22,2 C 0,2 UV-I 0,0 C 46 % 45 % 0 % 1021,4 hPa 0,0 l/m 10,0 km/h (2 Bft) 0 min 9,0 km/h (2 Bft)
03.06.2010 20:24 23,2 C 22,3 C 0,2 UV-I 0,0 C 46 % 46 % 0 % 1021,4 hPa 0,0 l/m 8,4 km/h (2 Bft) 0 min 3,2 km/h (1 Bft)
03.06.2010 20:26 23,2 C 22,2 C 0,6 UV-I 0,0 C 46 % 46 % 0 % 1021,4 hPa 0,0 l/m 8,4 km/h (2 Bft) 0 min 26,7 km/h (4 Bft)
03.06.2010 20:28 23,2 C 22,1 C 0,6 UV-I 0,0 C 46 % 45 % 0 % 1021,4 hPa 0,0 l/m 8,4 km/h (2 Bft) 0 min 10,3 km/h (2 Bft)
03.06.2010 20:30 23,1 C 22,1 C 0,6 UV-I 0,0 C 46 % 46 % 0 % 1021,4 hPa 0,0 l/m 8,4 km/h (2 Bft) 0 min 9,3 km/h (2 Bft)
03.06.2010 20:32 23,1 C 22,0 C 0,1 UV-I 0,0 C 46 % 46 % 0 % 1021,5 hPa 0,0 l/m 8,8 km/h (2 Bft) 0 min 7,1 km/h (2 Bft)
03.06.2010 20:34 23,1 C 22,0 C 0,1 UV-I 0,0 C 46 % 46 % 0 % 1021,5 hPa 0,0 l/m 9,6 km/h (2 Bft) 0 min 12,2 km/h (2 Bft)
03.06.2010 20:36 23,1 C 22,1 C 0,2 UV-I 0,0 C 46 % 46 % 0 % 1021,5 hPa 0,0 l/m 10,8 km/h (2 Bft) 0 min 7,1 km/h (2 Bft)
03.06.2010 20:38 23,1 C 21,9 C 0,2 UV-I 0,0 C 46 % 46 % 0 % 1021,5 hPa 0,0 l/m 10,0 km/h (2 Bft) 0 min 13,8 km/h (3 Bft)
03.06.2010 20:40 23,1 C 21,9 C 0,2 UV-I 0,0 C 46 % 46 % 0 % 1021,5 hPa 0,0 l/m 9,6 km/h (2 Bft) 0 min 7,1 km/h (2 Bft)
03.06.2010 20:42 23,1 C 21,9 C 0,1 UV-I 0,0 C 46 % 46 % 0 % 1021,5 hPa 0,0 l/m 10,8 km/h (2 Bft) 0 min 21,2 km/h (4 Bft)
03.06.2010 20:44 23,1 C 21,9 C 0,1 UV-I 0,0 C 46 % 46 % 0 % 1021,5 hPa 0,0 l/m 10,4 km/h (2 Bft) 0 min 9,0 km/h (2 Bft)
03.06.2010 20:46 23,0 C 21,9 C 0,4 UV-I 0,0 C 46 % 47 % 0 % 1021,5 hPa 0,0 l/m 10,0 km/h (2 Bft) 0 min 8,7 km/h (2 Bft)
03.06.2010 20:48 23,0 C 21,7 C 0,4 UV-I 0,0 C 46 % 47 % 0 % 1021,5 hPa 0,0 l/m 9,6 km/h (2 Bft) 0 min 7,4 km/h (2 Bft)
03.06.2010 20:50 23,0 C 21,7 C 0,4 UV-I 0,0 C 46 % 47 % 0 % 1021,5 hPa 0,0 l/m 9,2 km/h (2 Bft) 0 min 7,7 km/h (2 Bft)
03.06.2010 20:52 23,0 C 21,6 C 0,1 UV-I 0,0 C 46 % 47 % 0 % 1021,2 hPa 0,0 l/m 9,2 km/h (2 Bft) 0 min 7,1 km/h (2 Bft)
03.06.2010 20:54 23,0 C 21,6 C 0,1 UV-I 0,0 C 46 % 47 % 0 % 1021,2 hPa 0,0 l/m 8,8 km/h (2 Bft) 0 min 10,6 km/h (2 Bft)
03.06.2010 20:56 23,0 C 21,6 C 0,0 UV-I 0,0 C 46 % 47 % 0 % 1021,2 hPa 0,0 l/m 8,8 km/h (2 Bft) 0 min 11,6 km/h (2 Bft)
03.06.2010 21:00 23,0 C 21,5 C 0,0 UV-I 0,0 C 46 % 48 % 0 % 1021,2 hPa 0,0 l/m 8,8 km/h (2 Bft) 0 min 7,7 km/h (2 Bft)
03.06.2010 21:02 23,0 C 21,5 C 0,0 UV-I 0,0 C 46 % 48 % 0 % 1021,2 hPa 0,0 l/m 8,4 km/h (2 Bft) 0 min 9,7 km/h (2 Bft)
03.06.2010 21:04 22,9 C 21,3 C 0,0 UV-I 0,0 C 46 % 48 % 0 % 1021,2 hPa 0,0 l/m 7,6 km/h (2 Bft) 0 min 4,8 km/h (1 Bft)
03.06.2010 21:06 22,9 C 21,3 C 0,1 UV-I 0,0 C 46 % 49 % 0 % 1021,2 hPa 0,0 l/m 6,8 km/h (2 Bft) 0 min 9,7 km/h (2 Bft)
03.06.2010 21:08 22,9 C 21,2 C 0,1 UV-I 0,0 C 46 % 49 % 0 % 1021,2 hPa 0,0 l/m 6,4 km/h (2 Bft) 0 min 0,0 km/h (0 Bft)
03.06.2010 21:10 22,9 C 21,1 C 0,1 UV-I 0,0 C 46 % 49 % 0 % 1021,2 hPa 0,0 l/m 5,6 km/h (1 Bft) 0 min 4,2 km/h (1 Bft)
03.06.2010 21:12 22,9 C 21,0 C 0,0 UV-I 0,0 C 47 % 49 % 0 % 1021,0 hPa 0,0 l/m 5,6 km/h (1 Bft) 0 min 3,2 km/h (1 Bft)
03.06.2010 21:14 22,8 C 21,0 C 0,0 UV-I 0,0 C 46 % 50 % 0 % 1021,0 hPa 0,0 l/m 4,8 km/h (1 Bft) 0 min 3,5 km/h (1 Bft)
03.06.2010 21:16 22,8 C 21,1 C 0,0 UV-I 0,0 C 47 % 50 % 0 % 1021,0 hPa 0,0 l/m 4,8 km/h (1 Bft) 0 min 4,2 km/h (1 Bft)
03.06.2010 21:18 22,8 C 20,9 C 0,0 UV-I 0,0 C 47 % 51 % 0 % 1021,0 hPa 0,0 l/m 4,8 km/h (1 Bft) 0 min 7,7 km/h (2 Bft)
03.06.2010 21:20 22,8 C 20,8 C 0,0 UV-I 0,0 C 47 % 50 % 0 % 1021,0 hPa 0,0 l/m 5,6 km/h (1 Bft) 0 min 10,3 km/h (2 Bft)
03.06.2010 21:22 22,8 C 20,8 C 0,0 UV-I 0,0 C 47 % 51 % 0 % 1021,0 hPa 0,0 l/m 6,0 km/h (2 Bft) 0 min 8,0 km/h (2 Bft)
03.06.2010 21:24 22,8 C 20,8 C 0,0 UV-I 0,0 C 47 % 51 % 0 % 1021,0 hPa 0,0 l/m 6,4 km/h (2 Bft) 0 min 10,3 km/h (2 Bft)
03.06.2010 21:26 22,7 C 20,7 C 0,0 UV-I 0,0 C 47 % 51 % 0 % 1021,0 hPa 0,0 l/m 6,8 km/h (2 Bft) 0 min 8,0 km/h (2 Bft)
03.06.2010 21:28 22,7 C 20,7 C 0,0 UV-I 0,0 C 47 % 52 % 0 % 1021,0 hPa 0,0 l/m 7,6 km/h (2 Bft) 0 min 11,9 km/h (2 Bft)
03.06.2010 21:30 22,7 C 20,5 C 0,0 UV-I 0,0 C 47 % 52 % 0 % 1021,0 hPa 0,0 l/m 8,0 km/h (2 Bft) 0 min 5,1 km/h (1 Bft)
03.06.2010 21:32 22,7 C 20,5 C 0,0 UV-I 0,0 C 47 % 52 % 0 % 1021,1 hPa 0,0 l/m 7,6 km/h (2 Bft) 0 min 8,4 km/h (2 Bft)
03.06.2010 21:34 22,6 C 20,4 C 0,0 UV-I 0,0 C 47 % 52 % 0 % 1021,1 hPa 0,0 l/m 8,0 km/h (2 Bft) 0 min 6,1 km/h (2 Bft)
03.06.2010 21:36 22,6 C 20,5 C 0,0 UV-I 0,0 C 47 % 52 % 0 % 1021,1 hPa 0,0 l/m 7,6 km/h (2 Bft) 0 min 9,7 km/h (2 Bft)
03.06.2010 21:38 22,6 C 20,3 C 0,0 UV-I 0,0 C 47 % 52 % 0 % 1021,1 hPa 0,0 l/m 7,2 km/h (2 Bft) 0 min 3,9 km/h (1 Bft)
03.06.2010 21:40 22,6 C 20,3 C 0,0 UV-I 0,0 C 47 % 53 % 0 % 1021,1 hPa 0,0 l/m 6,8 km/h (2 Bft) 0 min 4,5 km/h (1 Bft)
03.06.2010 21:42 22,6 C 20,2 C 0,0 UV-I 0,0 C 47 % 53 % 0 % 1021,1 hPa 0,0 l/m 6,4 km/h (2 Bft) 0 min 6,8 km/h (2 Bft)
03.06.2010 21:44 22,5 C 20,1 C 0,0 UV-I 0,0 C 47 % 53 % 0 % 1021,1 hPa 0,0 l/m 6,0 km/h (2 Bft) 0 min 0,0 km/h (0 Bft)
03.06.2010 21:46 22,5 C 20,1 C 0,0 UV-I 0,0 C 47 % 53 % 0 % 1021,1 hPa 0,0 l/m 6,0 km/h (2 Bft) 0 min 9,3 km/h (2 Bft)
03.06.2010 21:48 22,5 C 20,1 C 0,0 UV-I 0,0 C 47 % 54 % 0 % 1021,1 hPa 0,0 l/m 5,6 km/h (1 Bft) 0 min 5,8 km/h (2 Bft)
03.06.2010 21:50 22,5 C 20,0 C 0,0 UV-I 0,0 C 47 % 54 % 0 % 1021,1 hPa 0,0 l/m 6,0 km/h (2 Bft) 0 min 4,8 km/h (1 Bft)
03.06.2010 21:52 22,4 C 19,9 C 0,0 UV-I 0,0 C 47 % 54 % 0 % 1021,1 hPa 0,0 l/m 6,0 km/h (2 Bft) 0 min 6,4 km/h (2 Bft)
03.06.2010 21:54 22,4 C 19,8 C 0,0 UV-I 0,0 C 47 % 54 % 0 % 1021,1 hPa 0,0 l/m 5,6 km/h (1 Bft) 0 min 3,2 km/h (1 Bft)
03.06.2010 21:56 22,4 C 19,9 C 0,0 UV-I 0,0 C 48 % 54 % 0 % 1021,1 hPa 0,0 l/m 5,6 km/h (1 Bft) 0 min 5,1 km/h (1 Bft)
03.06.2010 21:58 22,4 C 19,7 C 0,0 UV-I 0,0 C 48 % 55 % 0 % 1021,1 hPa 0,0 l/m 5,2 km/h (1 Bft) 0 min 4,8 km/h (1 Bft)
03.06.2010 22:00 22,4 C 19,6 C 0,0 UV-I 0,0 C 48 % 55 % 0 % 1021,1 hPa 0,0 l/m 5,2 km/h (1 Bft) 0 min 5,1 km/h (1 Bft)
03.06.2010 22:02 22,4 C 19,7 C 0,0 UV-I 0,0 C 48 % 55 % 0 % 1021,1 hPa 0,0 l/m 4,8 km/h (1 Bft) 0 min 5,8 km/h (2 Bft)
03.06.2010 22:04 22,4 C 19,6 C 0,0 UV-I 0,0 C 48 % 55 % 0 % 1021,1 hPa 0,0 l/m 4,8 km/h (1 Bft) 0 min 5,8 km/h (2 Bft)
03.06.2010 22:06 22,2 C 19,4 C 0,0 UV-I 0,0 C 48 % 56 % 0 % 1021,1 hPa 0,0 l/m 4,8 km/h (1 Bft) 0 min 4,5 km/h (1 Bft)
03.06.2010 22:08 22,3 C 19,5 C 0,0 UV-I 0,0 C 48 % 56 % 0 % 1021,1 hPa 0,0 l/m 5,2 km/h (1 Bft) 0 min 5,8 km/h (2 Bft)
03.06.2010 22:10 22,3 C 19,4 C 0,0 UV-I 0,0 C 48 % 56 % 0 % 1021,1 hPa 0,0 l/m 4,0 km/h (1 Bft) 0 min 3,9 km/h (1 Bft)
03.06.2010 22:12 22,3 C 19,3 C 0,0 UV-I 0,0 C 48 % 56 % 0 % 1021,4 hPa 0,0 l/m 3,6 km/h (1 Bft) 0 min 4,8 km/h (1 Bft)
03.06.2010 22:14 22,2 C 19,2 C 0,0 UV-I 0,0 C 48 % 57 % 0 % 1021,4 hPa 0,0 l/m 3,6 km/h (1 Bft) 0 min 3,9 km/h (1 Bft)
03.06.2010 22:16 22,2 C 19,2 C 0,0 UV-I 0,0 C 48 % 57 % 0 % 1021,4 hPa 0,0 l/m 3,2 km/h (1 Bft) 0 min 3,9 km/h (1 Bft)
03.06.2010 22:18 22,2 C 19,1 C 0,0 UV-I 0,0 C 48 % 57 % 0 % 1021,4 hPa 0,0 l/m 2,8 km/h (1 Bft) 0 min 3,5 km/h (1 Bft)
03.06.2010 22:20 22,2 C 19,0 C 0,0 UV-I 0,0 C 48 % 57 % 0 % 1021,4 hPa 0,0 l/m 3,6 km/h (1 Bft) 0 min 8,4 km/h (2 Bft)
03.06.2010 22:22 22,2 C 19,1 C 0,0 UV-I 0,0 C 48 % 57 % 0 % 1021,4 hPa 0,0 l/m 4,4 km/h (1 Bft) 0 min 5,8 km/h (2 Bft)
03.06.2010 22:26 22,1 C 18,9 C 0,0 UV-I 0,0 C 48 % 58 % 0 % 1021,4 hPa 0,0 l/m 4,8 km/h (1 Bft) 0 min 5,1 km/h (1 Bft)
03.06.2010 22:28 22,1 C 18,8 C 0,0 UV-I 0,0 C 48 % 58 % 0 % 1021,4 hPa 0,0 l/m 5,2 km/h (1 Bft) 0 min 5,8 km/h (2 Bft)
03.06.2010 22:30 22,1 C 18,9 C 0,0 UV-I 0,0 C 48 % 58 % 0 % 1021,4 hPa 0,0 l/m 5,2 km/h (1 Bft) 0 min 3,5 km/h (1 Bft)
03.06.2010 22:32 22,1 C 18,8 C 0,0 UV-I 0,0 C 48 % 58 % 0 % 1021,2 hPa 0,0 l/m 5,2 km/h (1 Bft) 0 min 5,8 km/h (2 Bft)
03.06.2010 22:34 22,1 C 18,7 C 0,0 UV-I 0,0 C 49 % 59 % 0 % 1021,2 hPa 0,0 l/m 5,6 km/h (1 Bft) 0 min 7,1 km/h (2 Bft)
03.06.2010 22:36 22,0 C 18,7 C 0,0 UV-I 0,0 C 49 % 59 % 0 % 1021,2 hPa 0,0 l/m 5,6 km/h (1 Bft) 0 min 5,8 km/h (2 Bft)
03.06.2010 22:38 22,0 C 18,6 C 0,0 UV-I 0,0 C 49 % 59 % 0 % 1021,2 hPa 0,0 l/m 6,0 km/h (2 Bft) 0 min 5,8 km/h (2 Bft)
03.06.2010 22:40 22,0 C 18,5 C 0,0 UV-I 0,0 C 49 % 59 % 0 % 1021,2 hPa 0,0 l/m 6,4 km/h (2 Bft) 0 min 6,1 km/h (2 Bft)
03.06.2010 22:42 22,0 C 18,4 C 0,0 UV-I 0,0 C 49 % 59 % 0 % 1021,2 hPa 0,0 l/m 6,4 km/h (2 Bft) 0 min 0,0 km/h (0 Bft)
03.06.2010 22:44 22,0 C 18,4 C 0,0 UV-I 0,0 C 49 % 60 % 0 % 1021,2 hPa 0,0 l/m 5,6 km/h (1 Bft) 0 min 0,0 km/h (0 Bft)
03.06.2010 22:46 22,0 C 18,3 C 0,0 UV-I 0,0 C 49 % 60 % 0 % 1021,2 hPa 0,0 l/m 4,8 km/h (1 Bft) 0 min 5,5 km/h (1 Bft)
03.06.2010 22:48 22,0 C 18,3 C 0,0 UV-I 0,0 C 49 % 60 % 0 % 1021,2 hPa 0,0 l/m 4,0 km/h (1 Bft) 0 min 0,0 km/h (0 Bft)
03.06.2010 22:50 22,0 C 18,3 C 0,0 UV-I 0,0 C 49 % 60 % 0 % 1021,2 hPa 0,0 l/m 2,8 km/h (1 Bft) 0 min 0,0 km/h (0 Bft)
03.06.2010 22:52 22,0 C 18,1 C 0,0 UV-I 0,0 C 49 % 60 % 0 % 1021,3 hPa 0,0 l/m 2,8 km/h (1 Bft) 0 min 3,9 km/h (1 Bft)
03.06.2010 22:54 22,0 C 18,0 C 0,0 UV-I 0,0 C 49 % 60 % 0 % 1021,3 hPa 0,0 l/m 2,0 km/h (1 Bft) 0 min 3,5 km/h (1 Bft)
03.06.2010 22:56 22,0 C 18,0 C 0,0 UV-I 0,0 C 49 % 61 % 0 % 1021,3 hPa 0,0 l/m 1,6 km/h (1 Bft) 0 min 0,0 km/h (0 Bft)
03.06.2010 22:58 22,0 C 17,9 C 0,0 UV-I 0,0 C 49 % 61 % 0 % 1021,3 hPa 0,0 l/m 1,2 km/h (1 Bft) 0 min 0,0 km/h (0 Bft)
03.06.2010 23:00 21,9 C 17,9 C 0,0 UV-I 0,0 C 49 % 61 % 0 % 1021,3 hPa 0,0 l/m 1,2 km/h (1 Bft) 0 min 5,5 km/h (1 Bft)
03.06.2010 23:02 21,9 C 17,8 C 0,0 UV-I 0,0 C 49 % 61 % 0 % 1021,3 hPa 0,0 l/m 1,6 km/h (1 Bft) 0 min 3,2 km/h (1 Bft)
03.06.2010 23:04 21,9 C 17,9 C 0,0 UV-I 0,0 C 49 % 61 % 0 % 1021,3 hPa 0,0 l/m 2,0 km/h (1 Bft) 0 min 3,5 km/h (1 Bft)
03.06.2010 23:06 21,9 C 17,9 C 0,0 UV-I 0,0 C 49 % 61 % 0 % 1021,3 hPa 0,0 l/m 2,8 km/h (1 Bft) 0 min 7,4 km/h (2 Bft)
03.06.2010 23:08 21,9 C 17,8 C 0,0 UV-I 0,0 C 49 % 61 % 0 % 1021,3 hPa 0,0 l/m 3,6 km/h (1 Bft) 0 min 3,2 km/h (1 Bft)
03.06.2010 23:10 21,8 C 17,7 C 0,0 UV-I 0,0 C 49 % 62 % 0 % 1021,3 hPa 0,0 l/m 4,8 km/h (1 Bft) 0 min 3,9 km/h (1 Bft)
03.06.2010 23:14 21,8 C 17,6 C 0,0 UV-I 0,0 C 49 % 62 % 0 % 1021,3 hPa 0,0 l/m 4,8 km/h (1 Bft) 0 min 5,5 km/h (1 Bft)
03.06.2010 23:16 21,8 C 17,6 C 0,0 UV-I 0,0 C 50 % 62 % 0 % 1021,3 hPa 0,0 l/m 5,2 km/h (1 Bft) 0 min 8,4 km/h (2 Bft)
03.06.2010 23:18 21,8 C 17,6 C 0,0 UV-I 0,0 C 50 % 62 % 0 % 1021,3 hPa 0,0 l/m 5,6 km/h (1 Bft) 0 min 6,8 km/h (2 Bft)
03.06.2010 23:20 21,8 C 17,5 C 0,0 UV-I 0,0 C 50 % 63 % 0 % 1021,3 hPa 0,0 l/m 5,6 km/h (1 Bft) 0 min 7,7 km/h (2 Bft)
03.06.2010 23:22 21,8 C 17,5 C 0,0 UV-I 0,0 C 50 % 63 % 0 % 1021,3 hPa 0,0 l/m 6,0 km/h (2 Bft) 0 min 5,5 km/h (1 Bft)
03.06.2010 23:24 21,8 C 17,5 C 0,0 UV-I 0,0 C 50 % 63 % 0 % 1021,3 hPa 0,0 l/m 6,4 km/h (2 Bft) 0 min 7,4 km/h (2 Bft)
03.06.2010 23:26 21,8 C 17,5 C 0,0 UV-I 0,0 C 50 % 63 % 0 % 1021,3 hPa 0,0 l/m 6,4 km/h (2 Bft) 0 min 6,1 km/h (2 Bft)
03.06.2010 23:30 21,7 C 17,3 C 0,0 UV-I 0,0 C 50 % 63 % 0 % 1021,3 hPa 0,0 l/m 6,0 km/h (2 Bft) 0 min 6,1 km/h (2 Bft)
03.06.2010 23:32 21,7 C 17,3 C 0,0 UV-I 0,0 C 50 % 64 % 0 % 1021,4 hPa 0,0 l/m 6,0 km/h (2 Bft) 0 min 6,1 km/h (2 Bft)
03.06.2010 23:34 21,7 C 17,2 C 0,0 UV-I 0,0 C 50 % 64 % 0 % 1021,4 hPa 0,0 l/m 6,0 km/h (2 Bft) 0 min 6,1 km/h (2 Bft)
03.06.2010 23:36 21,7 C 17,2 C 0,0 UV-I 0,0 C 50 % 64 % 0 % 1021,4 hPa 0,0 l/m 6,0 km/h (2 Bft) 0 min 6,1 km/h (2 Bft)
03.06.2010 23:38 21,7 C 17,2 C 0,0 UV-I 0,0 C 50 % 64 % 0 % 1021,4 hPa 0,0 l/m 6,4 km/h (2 Bft) 0 min 10,9 km/h (2 Bft)
03.06.2010 23:40 21,7 C 17,1 C 0,0 UV-I 0,0 C 50 % 64 % 0 % 1021,4 hPa 0,0 l/m 6,8 km/h (2 Bft) 0 min 5,8 km/h (2 Bft)
03.06.2010 23:42 21,7 C 17,1 C 0,0 UV-I 0,0 C 50 % 64 % 0 % 1021,4 hPa 0,0 l/m 7,2 km/h (2 Bft) 0 min 5,8 km/h (2 Bft)
03.06.2010 23:44 21,7 C 17,1 C 0,0 UV-I 0,0 C 50 % 64 % 0 % 1021,4 hPa 0,0 l/m 7,2 km/h (2 Bft) 0 min 6,1 km/h (2 Bft)
03.06.2010 23:48 21,7 C 17,0 C 0,0 UV-I 0,0 C 50 % 65 % 0 % 1021,4 hPa 0,0 l/m 8,0 km/h (2 Bft) 0 min 10,3 km/h (2 Bft)
03.06.2010 23:52 21,6 C 16,9 C 0,0 UV-I 0,0 C 50 % 65 % 0 % 1021,2 hPa 0,0 l/m 8,0 km/h (2 Bft) 0 min 9,0 km/h (2 Bft)
03.06.2010 23:54 21,6 C 16,8 C 0,0 UV-I 0,0 C 50 % 65 % 0 % 1021,2 hPa 0,0 l/m 8,0 km/h (2 Bft) 0 min 8,0 km/h (2 Bft)
03.06.2010 23:56 21,6 C 16,9 C 0,0 UV-I 0,0 C 50 % 65 % 0 % 1021,2 hPa 0,0 l/m 7,6 km/h (2 Bft) 0 min 5,5 km/h (1 Bft)
03.06.2010 23:58 21,6 C 16,8 C 0,0 UV-I 0,0 C 50 % 66 % 0 % 1021,2 hPa 0,0 l/m 6,8 km/h (2 Bft) 0 min 8,4 km/h (2 Bft)
_ Min-Zeit 05:58 05:32 00:00 00:00 16:50 16:38 00:00 21:12 - 02:32 - 00:54
Minimum _ 18,2 C 10,2 C 0,0 UV-I 0,0 C 42 % 38 % 0 % 1021,0 hPa - 0,0 km/h (0 Bft) - 0,0 km/h (0 Bft)
_ Max-Zeit 17:24 17:12 09:52 09:50 00:00 05:50 08:16 16:52 00:00 15:58 08:16 16:20
Maximum _ 25,6 C 24,4 C 16,0 UV-I 7,2 C 56 % 86 % 100 % 1026,2 hPa 0,0 l/m 16,9 km/h
S-SO (3 Bft)
2 min 38,6 km/h
W-SW (5 Bft)
Durchschnitt _ 20,9 C 17,7 C 4,3 UV-I 2,1 C 51 % 62 % 43 % 1022,7 hPa #0,0 l/m 7,5 km/h (2 Bft) #10:02 h 8,4 km/h (2 Bft)
© 2012 W. Hausmann